Darstellungsparameter: Aktuell verwendete Einstellungen:
Skalierung der Graphiken ... ?
xyx+y,   Skalierungsfaktor:      Skalierung: Modus: x, Faktor: 1
Darstellungszeitraum ... ?
Vom - - bis: - -   Zeitraum: 29.05.2011 - 11.06.2011
Min/Max/Avg-Anzeige ... ?
Zeige MMA aktuell
Zeige MMA Monat
Zeige MMA alles
Zeige --A aktuell
Zeige --A Monat
Zeige --A alles
Keine MMA-Anzeige
MMA:
Keine MMA-Graphiken
MMA-Basis: 29.05.2011 - 11.06.2011
Quicknavigation für Darstellung... ?
Tage:      1T, 2T, 3T, 5T -1T -2T -3T -5T +1T +2T +3T +5T
Wochen: 1W, 2W, 3W -1W -2W -3W +1W +2W +3W
Monate: 1M, 3M, 6M -1M -3M -6M +1M +3M +6M
Jahre:    1J, 3J, 5J, 10J -1J -3J -5J -10J +1J +3J +5J +10J
Nutze für die Darstellung ... ?
Originaldaten oder Mittelwerte auf ...
Stundenbasis Tagesbasis Wochenbasis
Monatsbasis Jahresbasis      Datenbasis: Original-Daten
Darstellen als:
Statistik (Auto) Statistik J:M      Darstellung:
Zur Graphik,    zurück zur Übersicht aller Sensoren.
 
Tabellarische Datenbersicht: ?
 
Sensor: Nr:Datum:Temp:Abs-Feuchte:Windchill:Wind:
Aussen-T/F 1 29-05-2011 00:11:03 13.8 C 5.96 g/m*3 13.8 C 0 km/h
2 29-05-2011 00:23:03 13.6 C 6.12 g/m*3 13.6 C 0 km/h
3 29-05-2011 00:35:03 13 C 5.9 g/m*3 13 C 0 km/h
4 29-05-2011 00:47:03 12.7 C 6.23 g/m*3 12.7 C 0 km/h
5 29-05-2011 00:59:03 12.7 C 6.23 g/m*3 12.7 C 0 km/h
6 29-05-2011 01:11:03 12.6 C 6.08 g/m*3 12.6 C 0 km/h
7 29-05-2011 01:23:04 12.9 C 6.42 g/m*3 12.9 C 0 km/h
8 29-05-2011 01:35:04 13 C 6.12 g/m*3 13 C 0 km/h
9 29-05-2011 01:47:04 13 C 6.12 g/m*3 13 C 0 km/h
10 29-05-2011 01:59:04 12.9 C 6.31 g/m*3 12.9 C 0 km/h
11 29-05-2011 02:11:04 13.1 C 6.16 g/m*3 13.1 C 0 km/h
12 29-05-2011 02:23:04 13.2 C 6.32 g/m*3 13.2 C 0 km/h
13 29-05-2011 02:35:04 13.2 C 6.32 g/m*3 13.2 C 0 km/h
14 29-05-2011 02:47:04 13.2 C 6.43 g/m*3 13.2 C 0 km/h
15 29-05-2011 02:59:04 13.1 C 6.28 g/m*3 13.1 C 0 km/h
16 29-05-2011 03:11:04 12.7 C 6.35 g/m*3 12.7 C 0 km/h
17 29-05-2011 03:23:04 12.4 C 6.34 g/m*3 12.4 C 0 km/h
18 29-05-2011 03:35:04 12.9 C 6.31 g/m*3 12.9 C 0 km/h
19 29-05-2011 03:47:04 13.2 C 6.2 g/m*3 13.2 C 0 km/h
20 29-05-2011 03:59:04 13.4 C 6.04 g/m*3 13.4 C 0 km/h
21 29-05-2011 04:11:04 13.3 C 6.01 g/m*3 13.3 C 0 km/h
22 29-05-2011 04:23:04 13.4 C 6.04 g/m*3 13.4 C 0 km/h
23 29-05-2011 04:35:04 13.2 C 5.97 g/m*3 13.2 C 0 km/h
24 29-05-2011 04:47:04 13.2 C 6.09 g/m*3 13.2 C 0 km/h
25 29-05-2011 04:59:04 13.1 C 6.05 g/m*3 13.1 C 0 km/h
Sensor: Nr:Datum:Temp:Abs-Feuchte:Windchill:Wind:
Aussen-T/F 26 29-05-2011 05:11:04 12.8 C 6.05 g/m*3 12.8 C 0 km/h
27 29-05-2011 05:23:05 12.2 C 6.15 g/m*3 12.2 C 0 km/h
28 29-05-2011 05:35:05 11.7 C 6.38 g/m*3 11.7 C 0 km/h
29 29-05-2011 05:47:05 11.6 C 6.44 g/m*3 11.6 C 0 km/h
30 29-05-2011 05:59:05 11.7 C 6.59 g/m*3 11.7 C 0 km/h
31 29-05-2011 06:11:05 11.8 C 6.53 g/m*3 11.8 C 0 km/h
32 29-05-2011 06:23:05 12.1 C 6.43 g/m*3 12.1 C 0 km/h
33 29-05-2011 06:35:05 12 C 6.61 g/m*3 12 C 0 km/h
34 29-05-2011 06:47:05 12.2 C 6.69 g/m*3 12.2 C 0 km/h
35 29-05-2011 06:59:05 12.3 C 6.84 g/m*3 12.3 C 0 km/h
36 29-05-2011 07:11:05 12.5 C 7.04 g/m*3 12.5 C 0 km/h
37 29-05-2011 07:23:05 12.6 C 6.97 g/m*3 12.6 C 0 km/h
38 29-05-2011 07:35:05 12.6 C 7.08 g/m*3 12.6 C 0 km/h
39 29-05-2011 07:47:05 12.8 C 7.28 g/m*3 12.8 C 0 km/h
40 29-05-2011 07:59:05 13.5 C 6.67 g/m*3 13.5 C 0 km/h
41 29-05-2011 08:11:05 14.6 C 6.38 g/m*3 14.6 C 0 km/h
42 29-05-2011 08:23:05 14.2 C 6.11 g/m*3 14.2 C 0 km/h
43 29-05-2011 08:35:05 14.7 C 6.3 g/m*3 14.7 C 0 km/h
44 29-05-2011 08:47:05 15.2 C 6.23 g/m*3 15.2 C 0 km/h
45 29-05-2011 08:59:05 15.2 C 6.23 g/m*3 15.2 C 0 km/h
46 29-05-2011 09:11:05 15.4 C 6.31 g/m*3 15.4 C 0 km/h
47 29-05-2011 09:23:03 15.6 C 6.38 g/m*3 15.6 C 0 km/h
48 29-05-2011 09:35:03 16 C 6.13 g/m*3 16 C 0 km/h
49 29-05-2011 09:47:02 16.7 C 6.25 g/m*3 16.7 C 0 km/h
50 29-05-2011 09:59:02 16.4 C 6.28 g/m*3 16.4 C 0 km/h
Sensor: Nr:Datum:Temp:Abs-Feuchte:Windchill:Wind:
Aussen-T/F 51 29-05-2011 10:11:03 16.8 C 6.43 g/m*3 16.8 C 0 km/h
52 29-05-2011 10:23:02 16.8 C 6.29 g/m*3 16.8 C 0 km/h
53 29-05-2011 10:35:02 17.6 C 6.45 g/m*3 17.6 C 0 km/h
54 29-05-2011 10:47:02 17.6 C 6.15 g/m*3 17.6 C 0 km/h
55 29-05-2011 10:59:02 18.4 C 6.29 g/m*3 18.4 C 0 km/h
56 29-05-2011 11:11:01 19.5 C 6.38 g/m*3 19.5 C 0 km/h
57 29-05-2011 11:23:02 19.6 C 6.25 g/m*3 19.6 C 0 km/h
58 29-05-2011 11:35:02 20.7 C 6.48 g/m*3 20.7 C 0 km/h
59 29-05-2011 11:47:02 20.1 C 6.43 g/m*3 20.1 C 0 km/h
60 29-05-2011 11:59:02 20.4 C 6.19 g/m*3 20.4 C 0 km/h
61 29-05-2011 12:11:03 20.4 C 6.19 g/m*3 20.4 C 0 km/h
62 29-05-2011 12:23:02 20.8 C 6.34 g/m*3 20.8 C 0 km/h
63 29-05-2011 12:35:02 21.5 C 6.22 g/m*3 21.5 C 0 km/h
64 29-05-2011 12:47:01 20.8 C 6.16 g/m*3 20.8 C 0 km/h
65 29-05-2011 12:59:01 21.3 C 6.15 g/m*3 21.3 C 0 km/h
66 29-05-2011 13:11:02 22.5 C 5.99 g/m*3 22.5 C 0 km/h
67 29-05-2011 13:23:01 25.6 C 5.48 g/m*3 25.6 C 0 km/h
68 29-05-2011 13:35:02 24.6 C 4.95 g/m*3 24.6 C 0 km/h
69 29-05-2011 13:47:01 27.5 C 5.29 g/m*3 27.5 C 0 km/h
70 29-05-2011 13:59:01 25.6 C 4.76 g/m*3 25.6 C 0 km/h
71 29-05-2011 14:11:02 27.5 C 5.29 g/m*3 27.5 C 0 km/h
72 29-05-2011 14:23:01 29.5 C 5.9 g/m*3 29.5 C 0 km/h
73 29-05-2011 14:35:02 28.5 C 5.59 g/m*3 28.5 C 0 km/h
74 29-05-2011 14:47:01 27.5 C 5.29 g/m*3 27.5 C 0 km/h
75 29-05-2011 14:59:01 28.2 C 5.5 g/m*3 28.2 C 0 km/h
Sensor: Nr:Datum:Temp:Abs-Feuchte:Windchill:Wind:
Aussen-T/F 76 29-05-2011 15:11:02 29.2 C 5.81 g/m*3 29.2 C 0 km/h
77 29-05-2011 15:23:02 28.6 C 5.62 g/m*3 28.6 C 0 km/h
78 29-05-2011 15:35:01 29.1 C 5.78 g/m*3 29.1 C 0 km/h
79 29-05-2011 15:47:02 29.4 C 5.87 g/m*3 29.4 C 0 km/h
80 29-05-2011 15:59:02 28.6 C 5.62 g/m*3 28.6 C 0 km/h
81 29-05-2011 16:11:01 29 C 5.74 g/m*3 29 C 0 km/h
82 29-05-2011 16:23:02 30.4 C 6.2 g/m*3 30.4 C 0 km/h
83 29-05-2011 16:35:01 28.2 C 5.5 g/m*3 28.2 C 0 km/h
84 29-05-2011 16:47:03 30.5 C 6.23 g/m*3 30.5 C 0 km/h
85 29-05-2011 16:59:03 30.2 C 6.13 g/m*3 30.2 C 0 km/h
86 29-05-2011 17:11:02 30 C 6.06 g/m*3 30 C 0 km/h
87 29-05-2011 17:23:02 28.9 C 5.71 g/m*3 28.9 C 0 km/h
88 29-05-2011 17:35:02 29.6 C 5.94 g/m*3 29.6 C 0 km/h
89 29-05-2011 17:47:02 29.7 C 5.97 g/m*3 29.7 C 0 km/h
90 29-05-2011 17:59:02 29.8 C 6 g/m*3 29.8 C 0 km/h
91 29-05-2011 18:11:01 29.1 C 5.78 g/m*3 29.1 C 0 km/h
92 29-05-2011 18:23:02 29.5 C 5.9 g/m*3 29.5 C 0 km/h
93 29-05-2011 18:35:02 29.1 C 5.78 g/m*3 29.1 C 0 km/h
94 29-05-2011 18:47:02 28.9 C 5.71 g/m*3 28.9 C 0 km/h
95 29-05-2011 18:59:02 28.4 C 5.56 g/m*3 28.4 C 0 km/h
96 29-05-2011 19:11:03 27.6 C 5.32 g/m*3 27.6 C 0 km/h
97 29-05-2011 19:23:02 27.7 C 5.35 g/m*3 27.7 C 0 km/h
98 29-05-2011 19:35:02 27.6 C 5.32 g/m*3 27.6 C 0 km/h
99 29-05-2011 19:47:01 25.5 C 5.68 g/m*3 25.5 C 0 km/h
100 29-05-2011 19:59:01 24.6 C 5.85 g/m*3 24.6 C 0 km/h
Sensor: Nr:Datum:Temp:Abs-Feuchte:Windchill:Wind:
Aussen-T/F 101 29-05-2011 20:11:02 23.8 C 6.45 g/m*3 23.8 C 0 km/h
102 29-05-2011 20:23:01 23.2 C 6.65 g/m*3 23.2 C 0 km/h
103 29-05-2011 20:35:02 22.1 C 7.03 g/m*3 22.1 C 0 km/h
104 29-05-2011 20:47:01 21.2 C 7.23 g/m*3 21.2 C 0 km/h
105 29-05-2011 20:59:01 20.3 C 7.21 g/m*3 20.3 C 0 km/h
106 29-05-2011 21:11:02 19.5 C 7.22 g/m*3 19.5 C 0 km/h
107 29-05-2011 21:23:01 18.9 C 7.13 g/m*3 18.9 C 0 km/h
108 29-05-2011 21:35:02 18.3 C 7.19 g/m*3 18.3 C 0 km/h
109 29-05-2011 21:47:01 17.9 C 7.18 g/m*3 17.9 C 0 km/h
110 29-05-2011 21:59:01 17.5 C 7.31 g/m*3 17.5 C 0 km/h
111 29-05-2011 22:11:02 17.2 C 7.18 g/m*3 17.2 C 0 km/h
112 29-05-2011 22:24:02 16.6 C 7.2 g/m*3 16.6 C 0 km/h
113 29-05-2011 22:36:02 16.1 C 6.99 g/m*3 16.1 C 0 km/h
114 29-05-2011 22:48:02 15.8 C 7.13 g/m*3 15.8 C 0 km/h
115 29-05-2011 23:00:02 15.7 C 7.23 g/m*3 15.7 C 0 km/h
116 29-05-2011 23:12:02 15.3 C 7.05 g/m*3 15.3 C 0 km/h
117 29-05-2011 23:24:02 14.9 C 7.01 g/m*3 14.9 C 0 km/h
118 29-05-2011 23:36:02 14.6 C 7.01 g/m*3 14.6 C 0 km/h
119 29-05-2011 23:48:02 14.4 C 7.05 g/m*3 14.4 C 0 km/h
120 30-05-2011 00:00:02 14.2 C 7.08 g/m*3 14.2 C 0 km/h
121 30-05-2011 00:12:02 14.1 C 7.04 g/m*3 14.1 C 0 km/h
122 30-05-2011 00:24:02 13.9 C 7.19 g/m*3 13.9 C 0 km/h
123 30-05-2011 00:36:02 13.7 C 7.1 g/m*3 13.7 C 0 km/h
124 30-05-2011 00:48:02 13.6 C 7.3 g/m*3 13.6 C 0 km/h
125 30-05-2011 01:00:02 13.3 C 7.28 g/m*3 13.3 C 0 km/h
Sensor: Nr:Datum:Temp:Abs-Feuchte:Windchill:Wind:
Aussen-T/F 126 30-05-2011 01:12:02 13.5 C 7.49 g/m*3 13.5 C 0 km/h
127 30-05-2011 01:24:02 13.2 C 7.35 g/m*3 13.2 C 0 km/h
128 30-05-2011 01:36:02 13.1 C 7.42 g/m*3 13.1 C 0 km/h
129 30-05-2011 01:48:02 12.9 C 7.33 g/m*3 12.9 C 0 km/h
130 30-05-2011 02:00:02 12.5 C 7.37 g/m*3 12.5 C 0 km/h
131 30-05-2011 02:12:02 12.2 C 7.12 g/m*3 12.2 C 0 km/h
132 30-05-2011 02:24:03 11.9 C 7.31 g/m*3 11.9 C 0 km/h
133 30-05-2011 02:36:03 11.7 C 7.43 g/m*3 11.7 C 0 km/h
134 30-05-2011 02:48:03 11.6 C 7.38 g/m*3 11.6 C 0 km/h
135 30-05-2011 03:00:03 11.3 C 7.45 g/m*3 11.3 C 0 km/h
136 30-05-2011 03:12:03 11 C 7.31 g/m*3 11 C 0 km/h
137 30-05-2011 03:24:03 11 C 7.51 g/m*3 11 C 0 km/h
138 30-05-2011 03:36:03 10.7 C 7.56 g/m*3 10.7 C 0 km/h
139 30-05-2011 03:48:03 10.7 C 7.56 g/m*3 10.7 C 0 km/h
140 30-05-2011 04:00:03 10.6 C 7.52 g/m*3 10.6 C 0 km/h
141 30-05-2011 04:12:03 10.6 C 7.52 g/m*3 10.6 C 0 km/h
142 30-05-2011 04:24:03 10.4 C 7.52 g/m*3 10.4 C 0 km/h
143 30-05-2011 04:36:03 10.1 C 7.38 g/m*3 10.1 C 0 km/h
144 30-05-2011 04:48:03 9.9 C 7.38 g/m*3 9.9 C 0 km/h
145 30-05-2011 05:00:03 9.8 C 7.33 g/m*3 9.8 C 0 km/h
146 30-05-2011 05:12:03 9.7 C 7.38 g/m*3 9.7 C 0 km/h
147 30-05-2011 05:24:03 9.6 C 7.42 g/m*3 9.6 C 0 km/h
148 30-05-2011 05:36:03 9.4 C 7.33 g/m*3 9.4 C 0 km/h
149 30-05-2011 05:48:03 9.3 C 7.28 g/m*3 9.3 C 0 km/h
150 30-05-2011 06:00:03 9.4 C 7.42 g/m*3 9.4 C 0 km/h
Sensor: Nr:Datum:Temp:Abs-Feuchte:Windchill:Wind:
Aussen-T/F 151 30-05-2011 06:12:03 9.5 C 7.55 g/m*3 9.5 C 0 km/h
152 30-05-2011 06:24:04 9.5 C 7.65 g/m*3 9.5 C 0 km/h
153 30-05-2011 06:36:02 9.7 C 7.74 g/m*3 9.7 C 0 km/h
154 30-05-2011 06:48:02 9.9 C 7.84 g/m*3 9.9 C 0 km/h
155 30-05-2011 07:00:02 10.1 C 7.85 g/m*3 10.1 C 0 km/h
156 30-05-2011 07:12:02 10.1 C 7.85 g/m*3 10.1 C 0 km/h
157 30-05-2011 07:24:02 10.3 C 7.95 g/m*3 10.3 C 0 km/h
158 30-05-2011 07:36:01 10.5 C 8.05 g/m*3 10.5 C 0 km/h
159 30-05-2011 07:48:02 10.7 C 8.15 g/m*3 10.7 C 0 km/h
160 30-05-2011 08:00:02 11 C 8.21 g/m*3 11 C 0 km/h
161 30-05-2011 08:12:01 11.7 C 8.68 g/m*3 11.7 C 0 km/h
162 30-05-2011 08:24:02 12.2 C 8.74 g/m*3 12.2 C 0 km/h
163 30-05-2011 08:36:02 12.7 C 8.91 g/m*3 12.7 C 0 km/h
164 30-05-2011 08:48:02 13.3 C 8.9 g/m*3 13.3 C 0 km/h
165 30-05-2011 09:00:02 13.9 C 9.11 g/m*3 13.9 C 0 km/h
166 30-05-2011 09:12:02 14.5 C 9.08 g/m*3 14.5 C 0 km/h
167 30-05-2011 09:24:03 15.3 C 9.01 g/m*3 15.3 C 0 km/h
168 30-05-2011 09:36:02 16 C 8.86 g/m*3 16 C 0 km/h
169 30-05-2011 09:48:02 16.8 C 9.01 g/m*3 16.8 C 0 km/h
170 30-05-2011 10:00:02 17.5 C 9.24 g/m*3 17.5 C 0 km/h
171 30-05-2011 10:12:02 18.8 C 9.18 g/m*3 18.8 C 0 km/h
172 30-05-2011 10:24:02 19.8 C 9.22 g/m*3 19.8 C 0 km/h
173 30-05-2011 10:36:02 20.1 C 9.21 g/m*3 20.1 C 0 km/h
174 30-05-2011 10:48:02 20.9 C 8.74 g/m*3 20.9 C 0 km/h
175 30-05-2011 11:00:02 21.8 C 8.06 g/m*3 21.8 C 0 km/h
Sensor: Nr:Datum:Temp:Abs-Feuchte:Windchill:Wind:
Aussen-T/F 176 30-05-2011 11:12:02 23.4 C 7.36 g/m*3 23.4 C 0 km/h
177 30-05-2011 11:24:02 24.3 C 6.64 g/m*3 24.3 C 0 km/h
178 30-05-2011 11:36:02 24.5 C 6.94 g/m*3 24.5 C 0 km/h
179 30-05-2011 11:48:02 24.9 C 6.64 g/m*3 24.9 C 0 km/h
180 30-05-2011 12:00:02 25.1 C 6.94 g/m*3 25.1 C 0 km/h
181 30-05-2011 12:12:01 25.8 C 6.02 g/m*3 25.8 C 0 km/h
182 30-05-2011 12:24:02 26.5 C 5.26 g/m*3 26.5 C 0 km/h
183 30-05-2011 12:36:02 26.2 C 5.17 g/m*3 26.2 C 0 km/h
184 30-05-2011 12:48:02 26.7 C 5.57 g/m*3 26.7 C 0 km/h
185 30-05-2011 13:00:03 27.2 C 5.2 g/m*3 27.2 C 0 km/h
186 30-05-2011 13:12:02 27.6 C 5.32 g/m*3 27.6 C 0 km/h
187 30-05-2011 13:24:02 30.9 C 6.37 g/m*3 30.9 C 0 km/h
188 30-05-2011 13:36:03 31.7 C 6.64 g/m*3 31.7 C 0 km/h
189 30-05-2011 13:48:02 32.5 C 6.93 g/m*3 32.5 C 0 km/h
190 30-05-2011 14:00:02 31.8 C 6.68 g/m*3 31.8 C 0 km/h
191 30-05-2011 14:12:02 33.3 C 7.23 g/m*3 33.3 C 0 km/h
192 30-05-2011 14:24:02 31.8 C 6.68 g/m*3 31.8 C 0 km/h
193 30-05-2011 14:36:02 32.9 C 7.08 g/m*3 32.9 C 0 km/h
194 30-05-2011 14:48:02 31.9 C 6.72 g/m*3 31.9 C 0 km/h
195 30-05-2011 15:00:02 32.4 C 6.9 g/m*3 32.4 C 0 km/h
196 30-05-2011 15:12:02 33.6 C 7.35 g/m*3 33.6 C 0 km/h
197 30-05-2011 15:24:02 33.5 C 7.31 g/m*3 33.5 C 0 km/h
198 30-05-2011 15:36:02 33.7 C 7.39 g/m*3 33.7 C 0 km/h
199 30-05-2011 15:48:02 33.3 C 7.23 g/m*3 33.3 C 0 km/h
200 30-05-2011 16:00:02 32.9 C 7.08 g/m*3 32.9 C 0 km/h
Sensor: Nr:Datum:Temp:Abs-Feuchte:Windchill:Wind:
Aussen-T/F 201 30-05-2011 16:12:02 33.4 C 7.27 g/m*3 33.4 C 0 km/h
202 30-05-2011 16:24:02 33.3 C 7.23 g/m*3 33.3 C 0 km/h
203 30-05-2011 16:36:02 33.1 C 7.16 g/m*3 33.1 C 0 km/h
204 30-05-2011 16:48:01 33.7 C 7.39 g/m*3 33.7 C 0 km/h
205 30-05-2011 17:00:01 32.6 C 6.97 g/m*3 32.6 C 0 km/h
206 30-05-2011 17:12:01 31.5 C 6.57 g/m*3 31.5 C 0 km/h
207 30-05-2011 17:24:01 32.3 C 6.86 g/m*3 32.3 C 0 km/h
208 30-05-2011 17:36:01 31.3 C 6.5 g/m*3 31.3 C 0 km/h
209 30-05-2011 17:48:12 31.4 C 6.54 g/m*3 31.4 C 0 km/h
210 30-05-2011 18:00:12 33 C 7.12 g/m*3 33 C 0 km/h
211 30-05-2011 18:12:02 33.8 C 7.43 g/m*3 33.8 C 0 km/h
212 30-05-2011 18:24:02 33.7 C 7.39 g/m*3 33.7 C 0 km/h
213 30-05-2011 18:36:02 30.9 C 6.37 g/m*3 30.9 C 0 km/h
214 30-05-2011 18:48:02 32.3 C 6.86 g/m*3 32.3 C 0 km/h
215 30-05-2011 19:00:02 32.2 C 6.82 g/m*3 32.2 C 0 km/h
216 30-05-2011 19:12:02 32 C 6.75 g/m*3 32 C 0 km/h
217 30-05-2011 19:24:02 32 C 6.75 g/m*3 32 C 0 km/h
218 30-05-2011 19:36:02 31.2 C 6.47 g/m*3 31.2 C 0 km/h
219 30-05-2011 19:48:02 29.7 C 5.97 g/m*3 29.7 C 0 km/h
220 30-05-2011 20:00:02 29.1 C 6.35 g/m*3 29.1 C 0 km/h
221 30-05-2011 20:12:02 28.2 C 6.05 g/m*3 28.2 C 0 km/h
222 30-05-2011 20:24:03 27.1 C 7.25 g/m*3 27.1 C 0 km/h
223 30-05-2011 20:36:02 25.9 C 7.26 g/m*3 25.9 C 0 km/h
224 30-05-2011 20:48:02 24.3 C 7.3 g/m*3 24.3 C 0 km/h
225 30-05-2011 21:00:02 23.7 C 7.27 g/m*3 23.7 C 0 km/h
Sensor: Nr:Datum:Temp:Abs-Feuchte:Windchill:Wind:
Aussen-T/F 226 30-05-2011 21:12:02 23.2 C 7.07 g/m*3 23.2 C 0 km/h
227 30-05-2011 21:24:02 22.5 C 6.99 g/m*3 22.5 C 0 km/h
228 30-05-2011 21:36:02 22 C 6.99 g/m*3 22 C 0 km/h
229 30-05-2011 21:48:02 21.5 C 7.17 g/m*3 21.5 C 0 km/h
230 30-05-2011 22:00:02 21.1 C 7.19 g/m*3 21.1 C 0 km/h
231 30-05-2011 22:12:02 20.9 C 7.29 g/m*3 20.9 C 0 km/h
232 30-05-2011 22:24:01 20.7 C 7.2 g/m*3 20.7 C 0 km/h
233 30-05-2011 22:36:02 20.7 C 7.2 g/m*3 20.7 C 0 km/h
234 30-05-2011 22:48:02 21.2 C 7.04 g/m*3 21.2 C 0 km/h
235 30-05-2011 23:00:02 20.5 C 7.12 g/m*3 20.5 C 0 km/h
236 30-05-2011 23:12:02 20.8 C 7.06 g/m*3 20.8 C 0 km/h
237 30-05-2011 23:24:02 20.1 C 7.13 g/m*3 20.1 C 0 km/h
238 30-05-2011 23:36:02 19.3 C 7.13 g/m*3 19.3 C 0 km/h
239 30-05-2011 23:48:02 19.5 C 7.22 g/m*3 19.5 C 0 km/h
240 31-05-2011 00:00:02 19.8 C 7.17 g/m*3 19.8 C 0 km/h
241 31-05-2011 00:12:02 19.1 C 7.21 g/m*3 19.1 C 0 km/h
242 31-05-2011 00:24:02 18.6 C 7.32 g/m*3 18.6 C 0 km/h
243 31-05-2011 00:36:02 17.9 C 7.48 g/m*3 17.9 C 0 km/h
244 31-05-2011 00:48:02 17.4 C 7.41 g/m*3 17.4 C 0 km/h
245 31-05-2011 01:00:02 16.9 C 7.48 g/m*3 16.9 C 0 km/h
246 31-05-2011 01:12:02 16.6 C 7.49 g/m*3 16.6 C 0 km/h
247 31-05-2011 01:24:02 16.4 C 7.4 g/m*3 16.4 C 0 km/h
248 31-05-2011 01:36:03 16.3 C 7.49 g/m*3 16.3 C 0 km/h
249 31-05-2011 01:48:03 16.8 C 8.01 g/m*3 16.8 C 0 km/h
250 31-05-2011 02:00:03 16.6 C 8.05 g/m*3 16.6 C 0 km/h
Sensor: Nr:Datum:Temp:Abs-Feuchte:Windchill:Wind:
Aussen-T/F 251 31-05-2011 02:12:03 16.5 C 7.86 g/m*3 16.5 C 0 km/h
252 31-05-2011 02:24:03 17.2 C 7.61 g/m*3 17.2 C 0 km/h
253 31-05-2011 02:36:03 17.6 C 7.8 g/m*3 17.6 C 0 km/h
254 31-05-2011 02:48:03 17.3 C 7.81 g/m*3 17.3 C 0 km/h
255 31-05-2011 03:00:03 16.9 C 8.2 g/m*3 16.9 C 0 km/h
256 31-05-2011 03:12:03 17.2 C 8.05 g/m*3 17.2 C 0 km/h
257 31-05-2011 03:24:03 17.7 C 7.85 g/m*3 17.7 C 0 km/h
258 31-05-2011 03:36:03 17.3 C 7.81 g/m*3 17.3 C 0 km/h
259 31-05-2011 03:48:03 15.9 C 7.85 g/m*3 15.9 C 0 km/h
260 31-05-2011 04:00:03 15.2 C 7.79 g/m*3 15.2 C 0 km/h
261 31-05-2011 04:12:03 15.7 C 8.16 g/m*3 15.7 C 0 km/h
262 31-05-2011 04:24:03 15.9 C 8.13 g/m*3 15.9 C 0 km/h
263 31-05-2011 04:36:03 15.5 C 8.2 g/m*3 15.5 C 0 km/h
264 31-05-2011 04:48:03 15.4 C 8.28 g/m*3 15.4 C 0 km/h
265 31-05-2011 05:00:03 15.4 C 8.15 g/m*3 15.4 C 0 km/h
266 31-05-2011 05:12:03 15.3 C 8.23 g/m*3 15.3 C 0 km/h
267 31-05-2011 05:24:03 15.7 C 8.43 g/m*3 15.7 C 0 km/h
268 31-05-2011 05:36:04 15.8 C 8.35 g/m*3 15.8 C 0 km/h
269 31-05-2011 05:48:04 15.3 C 8.23 g/m*3 15.3 C 0 km/h
270 31-05-2011 06:00:04 15 C 8.33 g/m*3 15 C 0 km/h
271 31-05-2011 06:12:04 15.4 C 8.41 g/m*3 15.4 C 0 km/h
272 31-05-2011 06:24:04 16.4 C 8.51 g/m*3 16.4 C 0 km/h
273 31-05-2011 06:36:04 15.9 C 8.4 g/m*3 15.9 C 0 km/h
274 31-05-2011 06:48:04 15.9 C 8.8 g/m*3 15.9 C 0 km/h
275 31-05-2011 07:00:04 16.8 C 8.72 g/m*3 16.8 C 0 km/h
Sensor: Nr:Datum:Temp:Abs-Feuchte:Windchill:Wind:
Aussen-T/F 276 31-05-2011 07:12:04 17.2 C 8.79 g/m*3 17.2 C 0 km/h
277 31-05-2011 07:24:01 17.7 C 8.6 g/m*3 17.7 C 0 km/h
278 31-05-2011 07:36:02 18.3 C 8.29 g/m*3 18.3 C 0 km/h
279 31-05-2011 07:48:01 18.1 C 8.5 g/m*3 18.1 C 0 km/h
280 31-05-2011 08:00:01 18 C 8.75 g/m*3 18 C 0 km/h
281 31-05-2011 08:12:02 18.1 C 8.81 g/m*3 18.1 C 0 km/h
282 31-05-2011 08:24:01 18.6 C 8.59 g/m*3 18.6 C 0 km/h
283 31-05-2011 08:36:02 19.3 C 8.29 g/m*3 19.3 C 0 km/h
284 31-05-2011 08:48:01 19.8 C 8.2 g/m*3 19.8 C 0 km/h
285 31-05-2011 09:00:01 19.1 C 8.03 g/m*3 19.1 C 0 km/h
286 31-05-2011 09:12:02 18 C 8.29 g/m*3 18 C 0 km/h
287 31-05-2011 09:24:01 16.4 C 9.07 g/m*3 16.4 C 0 km/h
288 31-05-2011 09:36:01 16 C 9.95 g/m*3 16 C 0 km/h
289 31-05-2011 09:48:01 16.1 C 10.55 g/m*3 16.1 C 0 km/h
290 31-05-2011 10:00:01 16.3 C 10.68 g/m*3 16.3 C 0 km/h
291 31-05-2011 10:12:01 17.1 C 10.34 g/m*3 17.1 C 0 km/h
292 31-05-2011 10:24:02 17.5 C 10.14 g/m*3 17.5 C 0 km/h
293 31-05-2011 10:36:01 17.7 C 10.11 g/m*3 17.7 C 0 km/h
294 31-05-2011 10:48:01 17.3 C 9.87 g/m*3 17.3 C 0 km/h
295 31-05-2011 11:00:01 16.6 C 10.03 g/m*3 16.6 C 0 km/h
296 31-05-2011 11:12:01 15.8 C 10.23 g/m*3 15.8 C 0 km/h
297 31-05-2011 11:24:02 15.1 C 10.32 g/m*3 15.1 C 0 km/h
298 31-05-2011 11:36:01 14.4 C 10.14 g/m*3 14.4 C 0 km/h
299 31-05-2011 11:48:02 14.1 C 10.07 g/m*3 14.1 C 0 km/h
300 31-05-2011 12:00:02 14.4 C 10.38 g/m*3 14.4 C 0 km/h
Sensor: Nr:Datum:Temp:Abs-Feuchte:Windchill:Wind:
Aussen-T/F 301 31-05-2011 12:12:01 14.2 C 10.14 g/m*3 14.2 C 0 km/h
302 31-05-2011 12:24:02 14.4 C 10.38 g/m*3 14.4 C 0 km/h
303 31-05-2011 12:36:01 14.4 C 10.38 g/m*3 14.4 C 0 km/h
304 31-05-2011 12:48:02 14.4 C 10.38 g/m*3 14.4 C 0 km/h
305 31-05-2011 13:00:02 14.4 C 10.38 g/m*3 14.4 C 0 km/h
306 31-05-2011 13:12:01 14.8 C 10.64 g/m*3 14.8 C 0 km/h
307 31-05-2011 13:24:02 15.1 C 10.71 g/m*3 15.1 C 0 km/h
308 31-05-2011 13:36:01 14.9 C 10.71 g/m*3 14.9 C 0 km/h
309 31-05-2011 13:48:02 14.7 C 10.58 g/m*3 14.7 C 0 km/h
310 31-05-2011 14:00:02 14.7 C 10.58 g/m*3 14.7 C 0 km/h
311 31-05-2011 14:12:01 15 C 10.64 g/m*3 15 C 0 km/h
312 31-05-2011 14:24:01 15.3 C 10.84 g/m*3 15.3 C 0 km/h
313 31-05-2011 14:36:02 15.1 C 10.06 g/m*3 15.1 C 0 km/h
314 31-05-2011 14:48:01 14.8 C 10.26 g/m*3 14.8 C 0 km/h
315 31-05-2011 15:00:01 14.6 C 10.26 g/m*3 14.6 C 0 km/h
316 31-05-2011 15:12:02 14.5 C 10.2 g/m*3 14.5 C 0 km/h
317 31-05-2011 15:24:01 15.3 C 10.32 g/m*3 15.3 C 0 km/h
318 31-05-2011 15:36:02 15.4 C 10.25 g/m*3 15.4 C 0 km/h
319 31-05-2011 15:48:01 14.4 C 9.89 g/m*3 14.4 C 0 km/h
320 31-05-2011 16:00:01 14.2 C 9.52 g/m*3 14.2 C 0 km/h
321 31-05-2011 16:12:02 14.2 C 9.65 g/m*3 14.2 C 0 km/h
322 31-05-2011 16:24:01 14 C 9.41 g/m*3 14 C 0 km/h
323 31-05-2011 16:36:01 13.8 C 9.53 g/m*3 13.8 C 0 km/h
324 31-05-2011 16:48:01 13.7 C 9.59 g/m*3 13.7 C 0 km/h
325 31-05-2011 17:00:01 13.3 C 9.36 g/m*3 13.3 C 0 km/h
Sensor: Nr:Datum:Temp:Abs-Feuchte:Windchill:Wind:
Aussen-T/F 326 31-05-2011 17:12:02 13.2 C 9.19 g/m*3 13.2 C 0 km/h
327 31-05-2011 17:24:01 12.8 C 8.96 g/m*3 12.8 C 0 km/h
328 31-05-2011 17:36:01 13 C 9.07 g/m*3 13 C 0 km/h
329 31-05-2011 17:48:02 12.7 C 9.02 g/m*3 12.7 C 0 km/h
330 31-05-2011 18:00:02 12.6 C 8.96 g/m*3 12.6 C 0 km/h
331 31-05-2011 18:12:01 12.4 C 8.74 g/m*3 12.4 C 0 km/h
332 31-05-2011 18:24:02 12.5 C 8.69 g/m*3 12.5 C 0 km/h
333 31-05-2011 18:36:01 12.3 C 8.58 g/m*3 12.3 C 0 km/h
334 31-05-2011 18:48:02 12.2 C 8.52 g/m*3 12.2 C 0 km/h
335 31-05-2011 19:00:02 12.2 C 8.42 g/m*3 12.2 C 0 km/h
336 31-05-2011 19:12:01 12.2 C 8.42 g/m*3 12.2 C 0 km/h
337 31-05-2011 19:24:01 12 C 8.42 g/m*3 12 C 0 km/h
338 31-05-2011 19:36:01 11.9 C 8.58 g/m*3 11.9 C 0 km/h
339 31-05-2011 19:48:01 11.7 C 8.68 g/m*3 11.7 C 0 km/h
340 31-05-2011 20:00:02 11.8 C 8.84 g/m*3 11.8 C 0 km/h
341 31-05-2011 20:12:01 11.6 C 8.83 g/m*3 11.6 C 0 km/h
342 31-05-2011 20:24:01 11.8 C 9.05 g/m*3 11.8 C 0 km/h
343 31-05-2011 20:36:02 11.6 C 8.83 g/m*3 11.6 C 0 km/h
344 31-05-2011 20:48:01 11.6 C 8.83 g/m*3 11.6 C 0 km/h
345 31-05-2011 21:00:01 11.3 C 8.57 g/m*3 11.3 C 0 km/h
346 31-05-2011 21:12:02 11.2 C 8.51 g/m*3 11.2 C 0 km/h
347 31-05-2011 21:24:01 11 C 8.31 g/m*3 11 C 0 km/h
348 31-05-2011 21:36:02 10.8 C 8.3 g/m*3 10.8 C 0 km/h
349 31-05-2011 21:48:01 10.9 C 8.45 g/m*3 10.9 C 0 km/h
350 31-05-2011 22:00:01 10.8 C 8.5 g/m*3 10.8 C 0 km/h
Sensor: Nr:Datum:Temp:Abs-Feuchte:Windchill:Wind:
Aussen-T/F 351 31-05-2011 22:12:02 10.8 C 8.6 g/m*3 10.8 C 0 km/h
352 31-05-2011 22:24:01 10.7 C 8.55 g/m*3 10.7 C 0 km/h
353 31-05-2011 22:36:01 10.7 C 8.64 g/m*3 10.7 C 0 km/h
354 31-05-2011 22:49:05 10.7 C 8.64 g/m*3 10.7 C 0 km/h
355 31-05-2011 23:01:05 10.6 C 8.59 g/m*3 10.6 C 0 km/h
356 31-05-2011 23:13:05 10.6 C 8.59 g/m*3 10.6 C 0 km/h
357 31-05-2011 23:25:05 10.7 C 8.64 g/m*3 10.7 C 0 km/h
358 31-05-2011 23:37:05 10.7 C 8.64 g/m*3 10.7 C 0 km/h
359 31-05-2011 23:49:05 10.7 C 8.64 g/m*3 10.7 C 0 km/h
360 01-06-2011 00:01:05 10.5 C 8.53 g/m*3 10.5 C 0 km/h
361 01-06-2011 00:13:05 10.6 C 8.59 g/m*3 10.6 C 0 km/h
362 01-06-2011 00:25:05 10.7 C 8.55 g/m*3 10.7 C 0 km/h
363 01-06-2011 00:37:05 10.8 C 8.6 g/m*3 10.8 C 0 km/h
364 01-06-2011 00:49:05 10.6 C 8.49 g/m*3 10.6 C 0 km/h
365 01-06-2011 01:01:05 10.5 C 8.53 g/m*3 10.5 C 0 km/h
366 01-06-2011 01:13:05 10.4 C 8.48 g/m*3 10.4 C 0 km/h
367 01-06-2011 01:25:05 10.5 C 8.53 g/m*3 10.5 C 0 km/h
368 01-06-2011 01:37:05 10.5 C 8.53 g/m*3 10.5 C 0 km/h
369 01-06-2011 01:49:05 10.3 C 8.43 g/m*3 10.3 C 0 km/h
370 01-06-2011 02:01:06 10.4 C 8.48 g/m*3 10.4 C 0 km/h
371 01-06-2011 02:13:06 10.4 C 8.48 g/m*3 10.4 C 0 km/h
372 01-06-2011 02:25:06 10.1 C 8.32 g/m*3 10.1 C 0 km/h
373 01-06-2011 02:37:06 10.3 C 8.43 g/m*3 10.3 C 0 km/h
374 01-06-2011 02:49:06 10.2 C 8.37 g/m*3 10.2 C 0 km/h
375 01-06-2011 03:01:06 10.3 C 8.43 g/m*3 10.3 C 0 km/h
Sensor: Nr:Datum:Temp:Abs-Feuchte:Windchill:Wind:
Aussen-T/F 376 01-06-2011 03:13:06 10.4 C 8.48 g/m*3 10.4 C 0 km/h
377 01-06-2011 03:25:06 10.2 C 8.09 g/m*3 10.2 C 0 km/h
378 01-06-2011 03:37:06 10.1 C 7.85 g/m*3 10.1 C 0 km/h
379 01-06-2011 03:49:06 10.1 C 7.75 g/m*3 10.1 C 0 km/h
380 01-06-2011 04:01:06 10 C 7.71 g/m*3 10 C 0 km/h
381 01-06-2011 04:13:06 10.1 C 7.66 g/m*3 10.1 C 0 km/h
382 01-06-2011 04:25:06 10.1 C 7.56 g/m*3 10.1 C 0 km/h
383 01-06-2011 04:37:06 9.8 C 7.52 g/m*3 9.8 C 0 km/h
384 01-06-2011 04:49:06 9.7 C 7.65 g/m*3 9.7 C 0 km/h
385 01-06-2011 05:01:06 9.5 C 7.55 g/m*3 9.5 C 0 km/h
386 01-06-2011 05:13:06 9.6 C 7.69 g/m*3 9.6 C 0 km/h
387 01-06-2011 05:25:06 9.5 C 7.65 g/m*3 9.5 C 0 km/h
388 01-06-2011 05:37:06 9.5 C 7.65 g/m*3 9.5 C 0 km/h
389 01-06-2011 05:49:06 9.5 C 7.65 g/m*3 9.5 C 0 km/h
390 01-06-2011 06:01:06 9.7 C 7.74 g/m*3 9.7 C 0 km/h
391 01-06-2011 06:13:07 9.8 C 7.79 g/m*3 9.8 C 0 km/h
392 01-06-2011 06:25:07 9.8 C 7.7 g/m*3 9.8 C 0 km/h
393 01-06-2011 06:37:07 9.9 C 7.66 g/m*3 9.9 C 0 km/h
394 01-06-2011 06:49:07 10.1 C 7.47 g/m*3 10.1 C 0 km/h
395 01-06-2011 07:01:07 10.3 C 7.37 g/m*3 10.3 C 0 km/h
396 01-06-2011 07:13:07 10.4 C 7.32 g/m*3 10.4 C 0 km/h
397 01-06-2011 07:25:03 10.5 C 7.18 g/m*3 10.5 C 0 km/h
398 01-06-2011 07:37:04 10.6 C 7.12 g/m*3 10.6 C 0 km/h
399 01-06-2011 07:49:02 10.4 C 7.04 g/m*3 10.4 C 0 km/h
400 01-06-2011 08:01:01 10.2 C 6.95 g/m*3 10.2 C 0 km/h
Sensor: Nr:Datum:Temp:Abs-Feuchte:Windchill:Wind:
Aussen-T/F 401 01-06-2011 08:13:01 10.6 C 7.12 g/m*3 10.6 C 0 km/h
402 01-06-2011 08:25:02 11 C 7.01 g/m*3 11 C 0 km/h
403 01-06-2011 08:37:01 11.3 C 7.04 g/m*3 11.3 C 0 km/h
404 01-06-2011 08:49:01 11.5 C 6.92 g/m*3 11.5 C 0 km/h
405 01-06-2011 09:01:02 11.6 C 6.86 g/m*3 11.6 C 0 km/h
406 01-06-2011 09:13:02 11.9 C 6.88 g/m*3 11.9 C 0 km/h
407 01-06-2011 09:25:02 12 C 6.71 g/m*3 12 C 0 km/h
408 01-06-2011 09:37:02 12.4 C 6.77 g/m*3 12.4 C 0 km/h
409 01-06-2011 09:49:02 12.2 C 6.58 g/m*3 12.2 C 0 km/h
410 01-06-2011 10:01:01 12.2 C 6.58 g/m*3 12.2 C 0 km/h
411 01-06-2011 10:13:01 12.7 C 6.46 g/m*3 12.7 C 0 km/h
412 01-06-2011 10:25:02 12.7 C 5.9 g/m*3 12.7 C 0 km/h
413 01-06-2011 10:37:02 13.2 C 6.32 g/m*3 13.2 C 0 km/h
414 01-06-2011 10:49:02 13.2 C 6.32 g/m*3 13.2 C 0 km/h
415 01-06-2011 11:01:02 13.2 C 6.32 g/m*3 13.2 C 0 km/h
416 01-06-2011 11:13:02 13.2 C 6.32 g/m*3 13.2 C 0 km/h
417 01-06-2011 11:25:02 13.2 C 6.32 g/m*3 13.2 C 0 km/h
418 01-06-2011 11:37:02 13.2 C 6.32 g/m*3 13.2 C 0 km/h
419 01-06-2011 11:49:02 16 C 5.45 g/m*3 16 C 0 km/h
420 01-06-2011 12:01:03 16 C 5.45 g/m*3 16 C 0 km/h
421 01-06-2011 12:13:03 16 C 5.45 g/m*3 16 C 0 km/h
422 01-06-2011 12:25:02 17.1 C 5.68 g/m*3 17.1 C 0 km/h
423 01-06-2011 12:37:02 17.5 C 5.52 g/m*3 17.5 C 0 km/h
424 01-06-2011 12:49:02 18.1 C 5.56 g/m*3 18.1 C 0 km/h
425 01-06-2011 13:01:01 18.7 C 5.76 g/m*3 18.7 C 0 km/h
Sensor: Nr:Datum:Temp:Abs-Feuchte:Windchill:Wind:
Aussen-T/F 426 01-06-2011 13:13:01 17.7 C 5.28 g/m*3 17.7 C 0 km/h
427 01-06-2011 13:25:01 17.7 C 5.28 g/m*3 17.7 C 0 km/h
428 01-06-2011 13:37:01 18.5 C 5.54 g/m*3 18.5 C 0 km/h
429 01-06-2011 13:49:02 18.5 C 5.54 g/m*3 18.5 C 0 km/h
430 01-06-2011 14:01:02 18.5 C 5.54 g/m*3 18.5 C 0 km/h
431 01-06-2011 14:13:02 18.5 C 5.54 g/m*3 18.5 C 0 km/h
432 01-06-2011 14:25:02 20.6 C 5.01 g/m*3 20.6 C 0 km/h
433 01-06-2011 14:37:03 21 C 4.76 g/m*3 21 C 0 km/h
434 01-06-2011 14:49:02 19.8 C 4.95 g/m*3 19.8 C 0 km/h
435 01-06-2011 15:01:03 20.3 C 5.1 g/m*3 20.3 C 0 km/h
436 01-06-2011 15:13:03 23 C 4.93 g/m*3 23 C 0 km/h
437 01-06-2011 15:25:02 20.7 C 4.86 g/m*3 20.7 C 0 km/h
438 01-06-2011 15:37:02 20.5 C 4.98 g/m*3 20.5 C 0 km/h
439 01-06-2011 15:49:02 21.3 C 4.66 g/m*3 21.3 C 0 km/h
440 01-06-2011 16:01:03 22.1 C 3.9 g/m*3 22.1 C 0 km/h
441 01-06-2011 16:13:03 21.1 C 4.24 g/m*3 21.1 C 0 km/h
442 01-06-2011 16:25:03 21.7 C 4.39 g/m*3 21.7 C 0 km/h
443 01-06-2011 16:37:02 20.9 C 4.55 g/m*3 20.9 C 0 km/h
444 01-06-2011 16:49:02 21.7 C 4.77 g/m*3 21.7 C 0 km/h
445 01-06-2011 17:01:02 20.9 C 4.74 g/m*3 20.9 C 0 km/h
446 01-06-2011 17:13:02 21.6 C 4.74 g/m*3 21.6 C 0 km/h
447 01-06-2011 17:25:02 20.3 C 4.75 g/m*3 20.3 C 0 km/h
448 01-06-2011 17:37:03 19.7 C 5.09 g/m*3 19.7 C 0 km/h
449 01-06-2011 17:49:02 19.5 C 5.03 g/m*3 19.5 C 0 km/h
450 01-06-2011 18:01:03 19.6 C 5.06 g/m*3 19.6 C 0 km/h
Sensor: Nr:Datum:Temp:Abs-Feuchte:Windchill:Wind:
Aussen-T/F 451 01-06-2011 18:13:03 19.8 C 5.12 g/m*3 19.8 C 0 km/h
452 01-06-2011 18:25:02 19.9 C 5.15 g/m*3 19.9 C 0 km/h
453 01-06-2011 18:37:03 20.1 C 5.21 g/m*3 20.1 C 0 km/h
454 01-06-2011 18:49:02 20.1 C 5.56 g/m*3 20.1 C 0 km/h
455 01-06-2011 19:01:02 19.5 C 5.2 g/m*3 19.5 C 0 km/h
456 01-06-2011 19:13:02 19.8 C 5.64 g/m*3 19.8 C 0 km/h
457 01-06-2011 19:25:01 21 C 5.31 g/m*3 21 C 0 km/h
458 01-06-2011 19:37:02 22.8 C 4.47 g/m*3 22.8 C 0 km/h
459 01-06-2011 19:49:02 20 C 5.01 g/m*3 20 C 0 km/h
460 01-06-2011 20:01:02 18.9 C 5.18 g/m*3 18.9 C 0 km/h
461 01-06-2011 20:13:02 18.5 C 5.22 g/m*3 18.5 C 0 km/h
462 01-06-2011 20:25:02 18 C 5.38 g/m*3 18 C 0 km/h
463 01-06-2011 20:37:02 17.7 C 6.04 g/m*3 17.7 C 0 km/h
464 01-06-2011 20:49:02 17.9 C 6.41 g/m*3 17.9 C 0 km/h
465 01-06-2011 21:01:02 17.5 C 6.26 g/m*3 17.5 C 0 km/h
466 01-06-2011 21:13:02 17 C 5.93 g/m*3 17 C 0 km/h
467 01-06-2011 21:25:03 17.2 C 5.56 g/m*3 17.2 C 0 km/h
468 01-06-2011 21:37:03 17 C 5.64 g/m*3 17 C 0 km/h
469 01-06-2011 21:49:03 16.9 C 5.9 g/m*3 16.9 C 0 km/h
470 01-06-2011 22:01:03 16.6 C 5.93 g/m*3 16.6 C 0 km/h
471 01-06-2011 22:13:03 16.6 C 5.93 g/m*3 16.6 C 0 km/h
472 01-06-2011 22:25:02 16.2 C 7.03 g/m*3 16.2 C 0 km/h
473 01-06-2011 22:37:02 16.2 C 7.03 g/m*3 16.2 C 0 km/h
474 01-06-2011 22:49:02 15.8 C 6.19 g/m*3 15.8 C 0 km/h
475 01-06-2011 23:02:18 15.8 C 6.33 g/m*3 15.8 C 0 km/h
Sensor: Nr:Datum:Temp:Abs-Feuchte:Windchill:Wind:
Aussen-T/F 476 01-06-2011 23:14:18 15.9 C 5.96 g/m*3 15.9 C 0 km/h
477 01-06-2011 23:26:18 15.8 C 6.06 g/m*3 15.8 C 0 km/h
478 01-06-2011 23:38:18 15.8 C 6.06 g/m*3 15.8 C 0 km/h
479 01-06-2011 23:50:18 15.7 C 6.02 g/m*3 15.7 C 0 km/h
480 02-06-2011 00:02:18 15.5 C 6.21 g/m*3 15.5 C 0 km/h
481 02-06-2011 00:14:19 15.2 C 6.36 g/m*3 15.2 C 0 km/h
482 02-06-2011 00:26:19 15.2 C 6.23 g/m*3 15.2 C 0 km/h
483 02-06-2011 00:38:19 14.8 C 7.22 g/m*3 14.8 C 0 km/h
484 02-06-2011 00:50:19 14.3 C 7.25 g/m*3 14.3 C 0 km/h
485 02-06-2011 01:02:19 14.1 C 7.28 g/m*3 14.1 C 0 km/h
486 02-06-2011 01:14:19 13.9 C 7.43 g/m*3 13.9 C 0 km/h
487 02-06-2011 01:26:19 13.8 C 7.39 g/m*3 13.8 C 0 km/h
488 02-06-2011 01:38:19 13.8 C 7.27 g/m*3 13.8 C 0 km/h
489 02-06-2011 01:50:19 13.7 C 7.34 g/m*3 13.7 C 0 km/h
490 02-06-2011 02:02:19 13.7 C 7.46 g/m*3 13.7 C 0 km/h
491 02-06-2011 02:14:19 13.5 C 7.37 g/m*3 13.5 C 0 km/h
492 02-06-2011 02:26:19 13.5 C 7.25 g/m*3 13.5 C 0 km/h
493 02-06-2011 02:38:19 13.3 C 6.93 g/m*3 13.3 C 0 km/h
494 02-06-2011 02:50:19 13.3 C 7.16 g/m*3 13.3 C 0 km/h
495 02-06-2011 03:02:19 13.1 C 6.85 g/m*3 13.1 C 0 km/h
496 02-06-2011 03:14:19 12.7 C 6.68 g/m*3 12.7 C 0 km/h
497 02-06-2011 03:26:19 12.2 C 6.58 g/m*3 12.2 C 0 km/h
498 02-06-2011 03:38:19 11.4 C 6.47 g/m*3 11.4 C 0 km/h
499 02-06-2011 03:50:19 10.7 C 6.38 g/m*3 10.7 C 0 km/h
500 02-06-2011 04:02:19 10.4 C 6.36 g/m*3 10.4 C 0 km/h
Sensor: Nr:Datum:Temp:Abs-Feuchte:Windchill:Wind:
Aussen-T/F 501 02-06-2011 04:14:20 10.5 C 6.3 g/m*3 10.5 C 0 km/h
502 02-06-2011 04:26:20 10.7 C 6.38 g/m*3 10.7 C 0 km/h
503 02-06-2011 04:38:20 10.6 C 6.25 g/m*3 10.6 C 0 km/h
504 02-06-2011 04:50:20 10 C 6.2 g/m*3 10 C 0 km/h
505 02-06-2011 05:02:20 9.6 C 6.23 g/m*3 9.6 C 0 km/h
506 02-06-2011 05:14:20 9.2 C 6.16 g/m*3 9.2 C 0 km/h
507 02-06-2011 05:26:20 9.1 C 6.21 g/m*3 9.1 C 0 km/h
508 02-06-2011 05:38:20 8.9 C 6.31 g/m*3 8.9 C 0 km/h
509 02-06-2011 05:50:20 8.7 C 6.14 g/m*3 8.7 C 0 km/h
510 02-06-2011 06:02:20 8.6 C 6.19 g/m*3 8.6 C 0 km/h
511 02-06-2011 06:14:20 8.8 C 6.35 g/m*3 8.8 C 0 km/h
512 02-06-2011 06:26:20 9 C 6.35 g/m*3 9 C 0 km/h
513 02-06-2011 06:38:20 8.9 C 6.48 g/m*3 8.9 C 0 km/h
514 02-06-2011 06:50:20 8.8 C 6.44 g/m*3 8.8 C 0 km/h
515 02-06-2011 07:02:04 8.9 C 6.57 g/m*3 8.9 C 0 km/h
516 02-06-2011 07:14:04 9.3 C 6.56 g/m*3 9.3 C 0 km/h
517 02-06-2011 07:26:03 9.7 C 6.64 g/m*3 9.7 C 0 km/h
518 02-06-2011 07:38:04 10 C 6.58 g/m*3 10 C 0 km/h
519 02-06-2011 07:50:03 10 C 6.48 g/m*3 10 C 0 km/h
520 02-06-2011 08:02:02 10 C 6.58 g/m*3 10 C 0 km/h
521 02-06-2011 08:14:02 10.5 C 6.79 g/m*3 10.5 C 0 km/h
522 02-06-2011 08:26:03 10.8 C 6.92 g/m*3 10.8 C 0 km/h
523 02-06-2011 08:38:03 11.2 C 6.89 g/m*3 11.2 C 0 km/h
524 02-06-2011 08:50:01 11.8 C 6.95 g/m*3 11.8 C 0 km/h
525 02-06-2011 09:02:02 12.3 C 6.84 g/m*3 12.3 C 0 km/h
Sensor: Nr:Datum:Temp:Abs-Feuchte:Windchill:Wind:
Aussen-T/F 526 02-06-2011 09:14:02 13 C 6.8 g/m*3 13 C 0 km/h
527 02-06-2011 09:26:02 13.5 C 6.32 g/m*3 13.5 C 0 km/h
528 02-06-2011 09:38:02 13.5 C 6.32 g/m*3 13.5 C 0 km/h
529 02-06-2011 09:50:02 13.5 C 6.32 g/m*3 13.5 C 0 km/h
530 02-06-2011 10:02:02 13.5 C 6.32 g/m*3 13.5 C 0 km/h
531 02-06-2011 10:14:02 13.5 C 6.32 g/m*3 13.5 C 0 km/h
532 02-06-2011 10:26:02 13.5 C 6.32 g/m*3 13.5 C 0 km/h
533 02-06-2011 10:38:02 13.5 C 6.32 g/m*3 13.5 C 0 km/h
534 02-06-2011 10:50:02 13.5 C 6.32 g/m*3 13.5 C 0 km/h
535 02-06-2011 11:02:02 13.5 C 6.32 g/m*3 13.5 C 0 km/h
536 02-06-2011 11:14:02 19.1 C 4.26 g/m*3 19.1 C 0 km/h
537 02-06-2011 11:26:01 19.2 C 4.12 g/m*3 19.2 C 0 km/h
538 02-06-2011 11:38:03 19.3 C 4.15 g/m*3 19.3 C 0 km/h
539 02-06-2011 11:50:02 19.3 C 4.15 g/m*3 19.3 C 0 km/h
540 02-06-2011 12:02:04 19.3 C 4.15 g/m*3 19.3 C 0 km/h
541 02-06-2011 12:14:04 19.3 C 4.15 g/m*3 19.3 C 0 km/h
542 02-06-2011 12:26:02 20.1 C 4 g/m*3 20.1 C 0 km/h
543 02-06-2011 12:38:02 20.1 C 3.82 g/m*3 20.1 C 0 km/h
544 02-06-2011 12:50:02 20.5 C 3.74 g/m*3 20.5 C 0 km/h
545 02-06-2011 13:02:03 21.1 C 3.87 g/m*3 21.1 C 0 km/h
546 02-06-2011 13:14:03 21.4 C 3.75 g/m*3 21.4 C 0 km/h
547 02-06-2011 13:26:02 25.3 C 4.68 g/m*3 25.3 C 0 km/h
548 02-06-2011 13:38:03 27.9 C 5.41 g/m*3 27.9 C 0 km/h
549 02-06-2011 13:50:02 30 C 6.06 g/m*3 30 C 0 km/h
550 02-06-2011 14:02:02 30.1 C 6.1 g/m*3 30.1 C 0 km/h
Sensor: Nr:Datum:Temp:Abs-Feuchte:Windchill:Wind:
Aussen-T/F 551 02-06-2011 14:14:02 30.4 C 6.2 g/m*3 30.4 C 0 km/h
552 02-06-2011 14:26:02 30.3 C 6.16 g/m*3 30.3 C 0 km/h
553 02-06-2011 14:38:02 30.2 C 6.13 g/m*3 30.2 C 0 km/h
554 02-06-2011 14:50:02 30.1 C 6.1 g/m*3 30.1 C 0 km/h
555 02-06-2011 15:02:03 30.1 C 6.1 g/m*3 30.1 C 0 km/h
556 02-06-2011 15:14:03 30 C 6.06 g/m*3 30 C 0 km/h
557 02-06-2011 15:26:03 30.3 C 6.16 g/m*3 30.3 C 0 km/h
558 02-06-2011 15:38:03 30.7 C 6.3 g/m*3 30.7 C 0 km/h
559 02-06-2011 15:50:02 30.7 C 6.3 g/m*3 30.7 C 0 km/h
560 02-06-2011 16:02:03 30.1 C 6.1 g/m*3 30.1 C 0 km/h
561 02-06-2011 16:14:03 30.4 C 6.2 g/m*3 30.4 C 0 km/h
562 02-06-2011 16:26:02 30.1 C 6.1 g/m*3 30.1 C 0 km/h
563 02-06-2011 16:38:02 31.2 C 6.47 g/m*3 31.2 C 0 km/h
564 02-06-2011 16:50:03 31.3 C 6.5 g/m*3 31.3 C 0 km/h
565 02-06-2011 17:02:03 31.1 C 6.43 g/m*3 31.1 C 0 km/h
566 02-06-2011 17:14:03 30.7 C 6.3 g/m*3 30.7 C 0 km/h
567 02-06-2011 17:26:03 30.2 C 6.13 g/m*3 30.2 C 0 km/h
568 02-06-2011 17:38:02 30.8 C 6.33 g/m*3 30.8 C 0 km/h
569 02-06-2011 17:50:02 30.6 C 6.26 g/m*3 30.6 C 0 km/h
570 02-06-2011 18:02:01 30.6 C 6.26 g/m*3 30.6 C 0 km/h
571 02-06-2011 18:14:01 30.6 C 6.26 g/m*3 30.6 C 0 km/h
572 02-06-2011 18:26:01 30.6 C 6.26 g/m*3 30.6 C 0 km/h
573 02-06-2011 18:38:02 30.6 C 6.26 g/m*3 30.6 C 0 km/h
574 02-06-2011 18:50:01 30.6 C 6.26 g/m*3 30.6 C 0 km/h
575 02-06-2011 19:02:02 30.6 C 6.26 g/m*3 30.6 C 0 km/h
Sensor: Nr:Datum:Temp:Abs-Feuchte:Windchill:Wind:
Aussen-T/F 576 02-06-2011 19:14:02 30.6 C 6.26 g/m*3 30.6 C 0 km/h
577 02-06-2011 19:26:02 30.6 C 6.26 g/m*3 30.6 C 0 km/h
578 02-06-2011 19:38:02 30.6 C 6.26 g/m*3 30.6 C 0 km/h
579 02-06-2011 19:50:01 30.6 C 6.26 g/m*3 30.6 C 0 km/h
580 02-06-2011 20:02:02 30.6 C 6.26 g/m*3 30.6 C 0 km/h
581 02-06-2011 20:14:02 30.6 C 6.26 g/m*3 30.6 C 0 km/h
582 02-06-2011 20:26:02 30.6 C 6.26 g/m*3 30.6 C 0 km/h
583 02-06-2011 20:38:01 30.6 C 6.26 g/m*3 30.6 C 0 km/h
584 02-06-2011 20:50:02 30.6 C 6.26 g/m*3 30.6 C 0 km/h
585 02-06-2011 21:02:02 30.6 C 6.26 g/m*3 30.6 C 0 km/h
586 02-06-2011 21:14:02 30.6 C 6.26 g/m*3 30.6 C 0 km/h
587 02-06-2011 21:26:02 30.6 C 6.26 g/m*3 30.6 C 0 km/h
588 02-06-2011 21:38:02 30.6 C 6.26 g/m*3 30.6 C 0 km/h
589 02-06-2011 21:50:02 30.6 C 6.26 g/m*3 30.6 C 0 km/h
590 02-06-2011 22:02:02 30.6 C 6.26 g/m*3 30.6 C 0 km/h
591 02-06-2011 22:14:02 30.6 C 6.26 g/m*3 30.6 C 0 km/h
592 02-06-2011 22:27:02 16 C 5.59 g/m*3 16 C 0 km/h
593 02-06-2011 22:39:02 16 C 5.59 g/m*3 16 C 0 km/h
594 02-06-2011 22:51:02 16 C 5.59 g/m*3 16 C 0 km/h
595 02-06-2011 23:03:02 16 C 5.59 g/m*3 16 C 0 km/h
596 02-06-2011 23:15:02 16 C 5.59 g/m*3 16 C 0 km/h
597 02-06-2011 23:27:03 16 C 5.59 g/m*3 16 C 0 km/h
598 02-06-2011 23:39:03 16 C 5.59 g/m*3 16 C 0 km/h
599 02-06-2011 23:51:03 16 C 5.59 g/m*3 16 C 0 km/h
600 03-06-2011 00:03:03 16 C 5.59 g/m*3 16 C 0 km/h
Sensor: Nr:Datum:Temp:Abs-Feuchte:Windchill:Wind:
Aussen-T/F 601 03-06-2011 00:15:03 16 C 5.59 g/m*3 16 C 0 km/h
602 03-06-2011 00:27:03 16 C 5.59 g/m*3 16 C 0 km/h
603 03-06-2011 00:39:03 16 C 5.59 g/m*3 16 C 0 km/h
604 03-06-2011 00:51:03 16 C 5.59 g/m*3 16 C 0 km/h
605 03-06-2011 01:03:03 13.3 C 5.66 g/m*3 13.3 C 0 km/h
606 03-06-2011 01:15:03 13.2 C 5.63 g/m*3 13.2 C 0 km/h
607 03-06-2011 01:27:03 13.1 C 5.82 g/m*3 13.1 C 0 km/h
608 03-06-2011 01:39:03 12.9 C 5.97 g/m*3 12.9 C 0 km/h
609 03-06-2011 01:51:03 12.8 C 5.94 g/m*3 12.8 C 0 km/h
610 03-06-2011 02:03:03 12.8 C 5.71 g/m*3 12.8 C 0 km/h
611 03-06-2011 02:15:03 12.6 C 5.64 g/m*3 12.6 C 0 km/h
612 03-06-2011 02:27:03 12.4 C 5.68 g/m*3 12.4 C 0 km/h
613 03-06-2011 02:39:03 12.2 C 5.72 g/m*3 12.2 C 0 km/h
614 03-06-2011 02:51:03 11.9 C 5.82 g/m*3 11.9 C 0 km/h
615 03-06-2011 03:03:03 11.9 C 5.93 g/m*3 11.9 C 0 km/h
616 03-06-2011 03:15:03 11.7 C 5.96 g/m*3 11.7 C 0 km/h
617 03-06-2011 03:27:03 11.7 C 5.86 g/m*3 11.7 C 0 km/h
618 03-06-2011 03:39:04 11.6 C 5.72 g/m*3 11.6 C 0 km/h
619 03-06-2011 03:51:04 11.5 C 5.68 g/m*3 11.5 C 0 km/h
620 03-06-2011 04:03:04 11.6 C 5.72 g/m*3 11.6 C 0 km/h
621 03-06-2011 04:15:04 11.4 C 5.65 g/m*3 11.4 C 0 km/h
622 03-06-2011 04:27:04 11.3 C 5.71 g/m*3 11.3 C 0 km/h
623 03-06-2011 04:39:04 11.4 C 5.65 g/m*3 11.4 C 0 km/h
624 03-06-2011 04:51:04 11 C 5.51 g/m*3 11 C 0 km/h
625 03-06-2011 05:03:04 11 C 5.61 g/m*3 11 C 0 km/h
Sensor: Nr:Datum:Temp:Abs-Feuchte:Windchill:Wind:
Aussen-T/F 626 03-06-2011 05:15:04 11.2 C 5.68 g/m*3 11.2 C 0 km/h
627 03-06-2011 05:27:04 11.2 C 5.57 g/m*3 11.2 C 0 km/h
628 03-06-2011 05:39:04 11.5 C 5.78 g/m*3 11.5 C 0 km/h
629 03-06-2011 05:51:04 11.5 C 5.78 g/m*3 11.5 C 0 km/h
630 03-06-2011 06:03:04 11.7 C 5.96 g/m*3 11.7 C 0 km/h
631 03-06-2011 06:15:04 12.1 C 5.9 g/m*3 12.1 C 0 km/h
632 03-06-2011 06:27:04 12.5 C 6.38 g/m*3 12.5 C 0 km/h
633 03-06-2011 06:39:04 12.8 C 6.61 g/m*3 12.8 C 0 km/h
634 03-06-2011 06:51:04 12.9 C 6.42 g/m*3 12.9 C 0 km/h
635 03-06-2011 07:03:03 13.2 C 6.32 g/m*3 13.2 C 0 km/h
636 03-06-2011 07:15:01 13.6 C 6.36 g/m*3 13.6 C 0 km/h
637 03-06-2011 07:27:01 14.4 C 6.06 g/m*3 14.4 C 0 km/h
638 03-06-2011 07:39:02 14.9 C 6.37 g/m*3 14.9 C 0 km/h
639 03-06-2011 07:51:02 15 C 6.41 g/m*3 15 C 0 km/h
640 03-06-2011 08:03:03 15.1 C 6.58 g/m*3 15.1 C 0 km/h
641 03-06-2011 08:15:02 15.6 C 6.52 g/m*3 15.6 C 0 km/h
642 03-06-2011 08:27:02 16.2 C 6.21 g/m*3 16.2 C 0 km/h
643 03-06-2011 08:39:03 17 C 5.79 g/m*3 17 C 0 km/h
644 03-06-2011 08:51:02 17.7 C 6.04 g/m*3 17.7 C 0 km/h
645 03-06-2011 09:03:02 18.3 C 6.1 g/m*3 18.3 C 0 km/h
646 03-06-2011 09:15:02 18.6 C 5.89 g/m*3 18.6 C 0 km/h
647 03-06-2011 09:27:02 18.9 C 5.99 g/m*3 18.9 C 0 km/h
648 03-06-2011 09:39:02 19.5 C 5.87 g/m*3 19.5 C 0 km/h
649 03-06-2011 09:51:02 20.1 C 5.74 g/m*3 20.1 C 0 km/h
650 03-06-2011 10:03:03 20.7 C 5.94 g/m*3 20.7 C 0 km/h
Sensor: Nr:Datum:Temp:Abs-Feuchte:Windchill:Wind:
Aussen-T/F 651 03-06-2011 10:15:02 20.8 C 5.79 g/m*3 20.8 C 0 km/h
652 03-06-2011 10:27:02 21 C 5.86 g/m*3 21 C 0 km/h
653 03-06-2011 10:39:02 21 C 5.68 g/m*3 21 C 0 km/h
654 03-06-2011 10:51:01 21.9 C 5.79 g/m*3 21.9 C 0 km/h
655 03-06-2011 11:03:02 22.1 C 5.47 g/m*3 22.1 C 0 km/h
656 03-06-2011 11:15:02 21.9 C 5.79 g/m*3 21.9 C 0 km/h
657 03-06-2011 11:27:03 22.1 C 6.05 g/m*3 22.1 C 0 km/h
658 03-06-2011 11:39:01 22.9 C 5.72 g/m*3 22.9 C 0 km/h
659 03-06-2011 11:51:01 23 C 5.55 g/m*3 23 C 0 km/h
660 03-06-2011 12:03:02 23 C 5.34 g/m*3 23 C 0 km/h
661 03-06-2011 12:15:01 23.2 C 5.2 g/m*3 23.2 C 0 km/h
662 03-06-2011 12:27:01 23.7 C 5.78 g/m*3 23.7 C 0 km/h
663 03-06-2011 12:39:02 24.8 C 5.69 g/m*3 24.8 C 0 km/h
664 03-06-2011 12:51:02 25.1 C 5.79 g/m*3 25.1 C 0 km/h
665 03-06-2011 13:03:02 25.4 C 5.41 g/m*3 25.4 C 0 km/h
666 03-06-2011 13:15:02 26.1 C 5.39 g/m*3 26.1 C 0 km/h
667 03-06-2011 13:27:02 25.5 C 5.45 g/m*3 25.5 C 0 km/h
668 03-06-2011 13:39:02 26.3 C 5.69 g/m*3 26.3 C 0 km/h
669 03-06-2011 13:51:02 28.9 C 5.71 g/m*3 28.9 C 0 km/h
670 03-06-2011 14:03:02 27.5 C 5.82 g/m*3 27.5 C 0 km/h
671 03-06-2011 14:15:02 29.4 C 5.87 g/m*3 29.4 C 0 km/h
672 03-06-2011 14:27:02 29.6 C 5.94 g/m*3 29.6 C 0 km/h
673 03-06-2011 14:39:02 25.5 C 5.68 g/m*3 25.5 C 0 km/h
674 03-06-2011 14:51:02 25.4 C 6.12 g/m*3 25.4 C 0 km/h
675 03-06-2011 15:03:02 28.5 C 6.15 g/m*3 28.5 C 0 km/h
Sensor: Nr:Datum:Temp:Abs-Feuchte:Windchill:Wind:
Aussen-T/F 676 03-06-2011 15:15:03 30.2 C 6.13 g/m*3 30.2 C 0 km/h
677 03-06-2011 15:27:03 31 C 6.4 g/m*3 31 C 0 km/h
678 03-06-2011 15:39:02 31.5 C 6.57 g/m*3 31.5 C 0 km/h
679 03-06-2011 15:51:02 31.4 C 6.54 g/m*3 31.4 C 0 km/h
680 03-06-2011 16:03:01 30 C 6.06 g/m*3 30 C 0 km/h
681 03-06-2011 16:15:02 31.1 C 6.43 g/m*3 31.1 C 0 km/h
682 03-06-2011 16:27:02 31.4 C 6.54 g/m*3 31.4 C 0 km/h
683 03-06-2011 16:39:02 31.9 C 6.72 g/m*3 31.9 C 0 km/h
684 03-06-2011 16:51:02 30.9 C 6.37 g/m*3 30.9 C 0 km/h
685 03-06-2011 17:03:03 31.6 C 6.61 g/m*3 31.6 C 0 km/h
686 03-06-2011 17:15:02 31.2 C 6.47 g/m*3 31.2 C 0 km/h
687 03-06-2011 17:27:02 31.5 C 6.57 g/m*3 31.5 C 0 km/h
688 03-06-2011 17:39:02 31.6 C 6.61 g/m*3 31.6 C 0 km/h
689 03-06-2011 17:51:02 31.4 C 6.54 g/m*3 31.4 C 0 km/h
690 03-06-2011 18:03:02 30.5 C 6.23 g/m*3 30.5 C 0 km/h
691 03-06-2011 18:15:01 30.8 C 6.33 g/m*3 30.8 C 0 km/h
692 03-06-2011 18:27:01 29.4 C 5.87 g/m*3 29.4 C 0 km/h
693 03-06-2011 18:39:02 30 C 6.06 g/m*3 30 C 0 km/h
694 03-06-2011 18:51:01 30.6 C 6.26 g/m*3 30.6 C 0 km/h
695 03-06-2011 19:03:02 30.4 C 6.2 g/m*3 30.4 C 0 km/h
696 03-06-2011 19:15:01 29.4 C 5.87 g/m*3 29.4 C 0 km/h
697 03-06-2011 19:27:01 29.8 C 6.3 g/m*3 29.8 C 0 km/h
698 03-06-2011 19:39:02 27.4 C 6.31 g/m*3 27.4 C 0 km/h
699 03-06-2011 19:51:01 26.3 C 6.44 g/m*3 26.3 C 0 km/h
700 03-06-2011 20:03:02 25.3 C 6.79 g/m*3 25.3 C 0 km/h
Sensor: Nr:Datum:Temp:Abs-Feuchte:Windchill:Wind:
Aussen-T/F 701 03-06-2011 20:15:02 25.2 C 6.75 g/m*3 25.2 C 0 km/h
702 03-06-2011 20:27:02 24.6 C 7.88 g/m*3 24.6 C 0 km/h
703 03-06-2011 20:39:02 24 C 7.4 g/m*3 24 C 0 km/h
704 03-06-2011 20:51:02 23.7 C 7.49 g/m*3 23.7 C 0 km/h
705 03-06-2011 21:03:02 22.9 C 7.77 g/m*3 22.9 C 0 km/h
706 03-06-2011 21:15:02 22.3 C 7.31 g/m*3 22.3 C 0 km/h
707 03-06-2011 21:27:02 21.4 C 7.87 g/m*3 21.4 C 0 km/h
708 03-06-2011 21:39:03 20.8 C 7.97 g/m*3 20.8 C 0 km/h
709 03-06-2011 21:51:02 20.3 C 7.91 g/m*3 20.3 C 0 km/h
710 03-06-2011 22:03:02 20.7 C 7.74 g/m*3 20.7 C 0 km/h
711 03-06-2011 22:15:02 19.9 C 8.08 g/m*3 19.9 C 0 km/h
712 03-06-2011 22:27:03 20 C 8.12 g/m*3 20 C 0 km/h
713 03-06-2011 22:39:02 19.8 C 8.03 g/m*3 19.8 C 0 km/h
714 03-06-2011 22:52:06 19.6 C 7.93 g/m*3 19.6 C 0 km/h
715 03-06-2011 23:04:06 19.5 C 8.22 g/m*3 19.5 C 0 km/h
716 03-06-2011 23:16:06 19 C 8.15 g/m*3 19 C 0 km/h
717 03-06-2011 23:28:06 18.4 C 8.49 g/m*3 18.4 C 0 km/h
718 03-06-2011 23:40:06 18 C 8.45 g/m*3 18 C 0 km/h
719 03-06-2011 23:52:06 17.9 C 8.55 g/m*3 17.9 C 0 km/h
720 04-06-2011 00:04:06 17.7 C 8.45 g/m*3 17.7 C 0 km/h
721 04-06-2011 00:16:06 17.3 C 8.4 g/m*3 17.3 C 0 km/h
722 04-06-2011 00:28:06 17.4 C 8.6 g/m*3 17.4 C 0 km/h
723 04-06-2011 00:40:06 17.4 C 8.45 g/m*3 17.4 C 0 km/h
724 04-06-2011 00:52:06 17.4 C 8.74 g/m*3 17.4 C 0 km/h
725 04-06-2011 01:04:06 17 C 8.39 g/m*3 17 C 0 km/h
Sensor: Nr:Datum:Temp:Abs-Feuchte:Windchill:Wind:
Aussen-T/F 726 04-06-2011 01:16:06 17.1 C 8.73 g/m*3 17.1 C 0 km/h
727 04-06-2011 01:28:06 17.1 C 8.59 g/m*3 17.1 C 0 km/h
728 04-06-2011 01:40:06 16.8 C 8.58 g/m*3 16.8 C 0 km/h
729 04-06-2011 01:52:07 16.8 C 8.58 g/m*3 16.8 C 0 km/h
730 04-06-2011 02:04:07 16.4 C 8.37 g/m*3 16.4 C 0 km/h
731 04-06-2011 02:16:07 16.3 C 8.46 g/m*3 16.3 C 0 km/h
732 04-06-2011 02:28:07 16 C 8.58 g/m*3 16 C 0 km/h
733 04-06-2011 02:40:07 16 C 8.45 g/m*3 16 C 0 km/h
734 04-06-2011 02:52:07 15.9 C 8.53 g/m*3 15.9 C 0 km/h
735 04-06-2011 03:04:07 15.8 C 8.48 g/m*3 15.8 C 0 km/h
736 04-06-2011 03:16:07 15.8 C 8.62 g/m*3 15.8 C 0 km/h
737 04-06-2011 03:28:07 15.6 C 8.51 g/m*3 15.6 C 0 km/h
738 04-06-2011 03:40:07 15.6 C 8.51 g/m*3 15.6 C 0 km/h
739 04-06-2011 03:52:07 15.4 C 8.41 g/m*3 15.4 C 0 km/h
740 04-06-2011 04:04:07 15.3 C 8.36 g/m*3 15.3 C 0 km/h
741 04-06-2011 04:16:07 15.2 C 8.31 g/m*3 15.2 C 0 km/h
742 04-06-2011 04:28:07 15 C 8.33 g/m*3 15 C 0 km/h
743 04-06-2011 04:40:07 14.9 C 8.54 g/m*3 14.9 C 0 km/h
744 04-06-2011 04:52:07 15 C 8.33 g/m*3 15 C 0 km/h
745 04-06-2011 05:04:07 14.9 C 8.41 g/m*3 14.9 C 0 km/h
746 04-06-2011 05:16:07 14.7 C 8.31 g/m*3 14.7 C 0 km/h
747 04-06-2011 05:28:07 14.8 C 8.49 g/m*3 14.8 C 0 km/h
748 04-06-2011 05:40:07 15 C 8.33 g/m*3 15 C 0 km/h
749 04-06-2011 05:52:08 14.8 C 8.36 g/m*3 14.8 C 0 km/h
750 04-06-2011 06:04:08 15 C 8.46 g/m*3 15 C 0 km/h
Sensor: Nr:Datum:Temp:Abs-Feuchte:Windchill:Wind:
Aussen-T/F 751 04-06-2011 06:16:08 15 C 8.59 g/m*3 15 C 0 km/h
752 04-06-2011 06:28:08 15.2 C 8.7 g/m*3 15.2 C 0 km/h
753 04-06-2011 06:40:08 15.7 C 8.83 g/m*3 15.7 C 0 km/h
754 04-06-2011 06:52:08 16 C 8.86 g/m*3 16 C 0 km/h
755 04-06-2011 07:04:08 16.7 C 9.1 g/m*3 16.7 C 0 km/h
756 04-06-2011 07:16:08 17.4 C 9.04 g/m*3 17.4 C 0 km/h
757 04-06-2011 07:28:08 18.1 C 9.12 g/m*3 18.1 C 0 km/h
758 04-06-2011 07:40:08 18.6 C 9.39 g/m*3 18.6 C 0 km/h
759 04-06-2011 07:52:08 18.6 C 9.39 g/m*3 18.6 C 0 km/h
760 04-06-2011 08:04:08 18.5 C 9.18 g/m*3 18.5 C 0 km/h
761 04-06-2011 08:16:08 18.4 C 9.28 g/m*3 18.4 C 0 km/h
762 04-06-2011 08:28:08 18.3 C 9.54 g/m*3 18.3 C 0 km/h
763 04-06-2011 08:40:08 19 C 9.45 g/m*3 19 C 0 km/h
764 04-06-2011 08:52:02 20 C 9.51 g/m*3 20 C 0 km/h
765 04-06-2011 09:04:02 20.3 C 9.67 g/m*3 20.3 C 0 km/h
766 04-06-2011 09:16:02 20.8 C 9.96 g/m*3 20.8 C 0 km/h
767 04-06-2011 09:28:02 21.9 C 9.26 g/m*3 21.9 C 0 km/h
768 04-06-2011 09:40:02 22.6 C 9.24 g/m*3 22.6 C 0 km/h
769 04-06-2011 09:52:02 22.6 C 8.84 g/m*3 22.6 C 0 km/h
770 04-06-2011 10:04:02 22.9 C 9.4 g/m*3 22.9 C 0 km/h
771 04-06-2011 10:16:01 23.5 C 8.88 g/m*3 23.5 C 0 km/h
772 04-06-2011 10:28:01 24 C 8.49 g/m*3 24 C 0 km/h
773 04-06-2011 10:40:02 24 C 9.14 g/m*3 24 C 0 km/h
774 04-06-2011 10:52:03 24.4 C 8.23 g/m*3 24.4 C 0 km/h
775 04-06-2011 11:04:02 25 C 8.75 g/m*3 25 C 0 km/h
Sensor: Nr:Datum:Temp:Abs-Feuchte:Windchill:Wind:
Aussen-T/F 776 04-06-2011 11:16:02 25.3 C 8.43 g/m*3 25.3 C 0 km/h
777 04-06-2011 11:28:02 25.8 C 8.67 g/m*3 25.8 C 0 km/h
778 04-06-2011 11:40:03 26.2 C 8.37 g/m*3 26.2 C 0 km/h
779 04-06-2011 11:52:02 27 C 7.98 g/m*3 27 C 0 km/h
780 04-06-2011 12:04:02 27.4 C 7.89 g/m*3 27.4 C 0 km/h
781 04-06-2011 12:16:02 27.3 C 7.85 g/m*3 27.3 C 0 km/h
782 04-06-2011 12:28:02 27.3 C 7.85 g/m*3 27.3 C 0 km/h
783 04-06-2011 12:40:02 27.4 C 8.16 g/m*3 27.4 C 0 km/h
784 04-06-2011 12:52:02 27.8 C 8.07 g/m*3 27.8 C 0 km/h
785 04-06-2011 13:04:02 28.1 C 7.66 g/m*3 28.1 C 0 km/h
786 04-06-2011 13:16:02 28.7 C 7.91 g/m*3 28.7 C 0 km/h
787 04-06-2011 13:28:02 31.3 C 7.15 g/m*3 31.3 C 0 km/h
788 04-06-2011 13:40:02 32 C 6.75 g/m*3 32 C 0 km/h
789 04-06-2011 13:52:02 32.9 C 7.08 g/m*3 32.9 C 0 km/h
790 04-06-2011 14:04:02 33.2 C 7.2 g/m*3 33.2 C 0 km/h
791 04-06-2011 14:16:02 31.8 C 6.68 g/m*3 31.8 C 0 km/h
792 04-06-2011 14:28:02 33.2 C 7.2 g/m*3 33.2 C 0 km/h
793 04-06-2011 14:40:02 33 C 7.12 g/m*3 33 C 0 km/h
794 04-06-2011 14:52:02 32.3 C 6.86 g/m*3 32.3 C 0 km/h
795 04-06-2011 15:04:02 31.2 C 7.12 g/m*3 31.2 C 0 km/h
796 04-06-2011 15:16:02 32.6 C 6.97 g/m*3 32.6 C 0 km/h
797 04-06-2011 15:28:03 30.6 C 7.2 g/m*3 30.6 C 0 km/h
798 04-06-2011 15:40:01 30.4 C 8.06 g/m*3 30.4 C 0 km/h
799 04-06-2011 15:52:02 30.1 C 7.93 g/m*3 30.1 C 0 km/h
800 04-06-2011 16:04:01 30.2 C 7.97 g/m*3 30.2 C 0 km/h
Sensor: Nr:Datum:Temp:Abs-Feuchte:Windchill:Wind:
Aussen-T/F 801 04-06-2011 16:16:02 30.4 C 7.75 g/m*3 30.4 C 0 km/h
802 04-06-2011 16:28:02 26.5 C 7.01 g/m*3 26.5 C 0 km/h
803 04-06-2011 16:40:01 21.6 C 12.14 g/m*3 21.6 C 0 km/h
804 04-06-2011 16:52:02 20.7 C 13.14 g/m*3 20.7 C 0 km/h
805 04-06-2011 17:04:02 20.8 C 13.4 g/m*3 20.8 C 0 km/h
806 04-06-2011 17:16:02 23.6 C 14.25 g/m*3 23.6 C 0 km/h
807 04-06-2011 17:28:02 24.8 C 13.88 g/m*3 24.8 C 0 km/h
808 04-06-2011 17:40:02 24.6 C 13.73 g/m*3 24.6 C 0 km/h
809 04-06-2011 17:52:02 23.1 C 13.23 g/m*3 23.1 C 0 km/h
810 04-06-2011 18:04:02 22.6 C 13.86 g/m*3 22.6 C 0 km/h
811 04-06-2011 18:16:02 22.1 C 13.66 g/m*3 22.1 C 0 km/h
812 04-06-2011 18:28:02 21.4 C 13.5 g/m*3 21.4 C 0 km/h
813 04-06-2011 18:40:01 20.4 C 13.09 g/m*3 20.4 C 0 km/h
814 04-06-2011 18:52:02 20.1 C 13.04 g/m*3 20.1 C 0 km/h
815 04-06-2011 19:04:01 20.3 C 13.37 g/m*3 20.3 C 0 km/h
816 04-06-2011 19:16:01 20.9 C 13.48 g/m*3 20.9 C 0 km/h
817 04-06-2011 19:28:01 20.9 C 13.11 g/m*3 20.9 C 0 km/h
818 04-06-2011 19:40:02 20.6 C 12.89 g/m*3 20.6 C 0 km/h
819 04-06-2011 19:52:02 20.4 C 12.56 g/m*3 20.4 C 0 km/h
820 04-06-2011 20:04:02 20.5 C 12.46 g/m*3 20.5 C 0 km/h
821 04-06-2011 20:16:02 20.5 C 12.28 g/m*3 20.5 C 0 km/h
822 04-06-2011 20:28:02 20.4 C 12.38 g/m*3 20.4 C 0 km/h
823 04-06-2011 20:40:02 20.4 C 12.38 g/m*3 20.4 C 0 km/h
824 04-06-2011 20:52:02 20.3 C 12.49 g/m*3 20.3 C 0 km/h
825 04-06-2011 21:04:02 20 C 12.27 g/m*3 20 C 0 km/h
Sensor: Nr:Datum:Temp:Abs-Feuchte:Windchill:Wind:
Aussen-T/F 826 04-06-2011 21:16:02 19.5 C 12.75 g/m*3 19.5 C 0 km/h
827 04-06-2011 21:28:02 19.4 C 12.68 g/m*3 19.4 C 0 km/h
828 04-06-2011 21:40:02 19.6 C 12.32 g/m*3 19.6 C 0 km/h
829 04-06-2011 21:52:01 19.4 C 12.35 g/m*3 19.4 C 0 km/h
830 04-06-2011 22:04:01 19.4 C 12.01 g/m*3 19.4 C 0 km/h
831 04-06-2011 22:17:02 18.8 C 12.88 g/m*3 18.8 C 0 km/h
832 04-06-2011 22:29:02 18.4 C 12.9 g/m*3 18.4 C 0 km/h
833 04-06-2011 22:41:02 18.1 C 12.82 g/m*3 18.1 C 0 km/h
834 04-06-2011 22:53:03 18.1 C 12.98 g/m*3 18.1 C 0 km/h
835 04-06-2011 23:05:03 18 C 13.06 g/m*3 18 C 0 km/h
836 04-06-2011 23:17:03 18.1 C 13.13 g/m*3 18.1 C 0 km/h
837 04-06-2011 23:29:03 18 C 13.21 g/m*3 18 C 0 km/h
838 04-06-2011 23:41:03 17.9 C 13.28 g/m*3 17.9 C 0 km/h
839 04-06-2011 23:53:03 17.9 C 13.44 g/m*3 17.9 C 0 km/h
840 05-06-2011 00:05:03 17.9 C 13.44 g/m*3 17.9 C 0 km/h
841 05-06-2011 00:17:03 17.9 C 13.44 g/m*3 17.9 C 0 km/h
842 05-06-2011 00:29:03 17.7 C 13.28 g/m*3 17.7 C 0 km/h
843 05-06-2011 00:41:03 17.8 C 13.36 g/m*3 17.8 C 0 km/h
844 05-06-2011 00:53:03 17.7 C 13.28 g/m*3 17.7 C 0 km/h
845 05-06-2011 01:05:03 17.6 C 13.2 g/m*3 17.6 C 0 km/h
846 05-06-2011 01:17:03 17.4 C 13.04 g/m*3 17.4 C 0 km/h
847 05-06-2011 01:29:03 17.5 C 13.12 g/m*3 17.5 C 0 km/h
848 05-06-2011 01:41:03 17.2 C 12.89 g/m*3 17.2 C 0 km/h
849 05-06-2011 01:53:03 17 C 12.73 g/m*3 17 C 0 km/h
850 05-06-2011 02:05:03 16.9 C 12.8 g/m*3 16.9 C 0 km/h
Sensor: Nr:Datum:Temp:Abs-Feuchte:Windchill:Wind:
Aussen-T/F 851 05-06-2011 02:17:03 16.7 C 12.65 g/m*3 16.7 C 0 km/h
852 05-06-2011 02:29:03 16.5 C 12.5 g/m*3 16.5 C 0 km/h
853 05-06-2011 02:41:03 16.3 C 12.35 g/m*3 16.3 C 0 km/h
854 05-06-2011 02:53:04 16.4 C 12.42 g/m*3 16.4 C 0 km/h
855 05-06-2011 03:05:04 16.1 C 12.2 g/m*3 16.1 C 0 km/h
856 05-06-2011 03:17:04 16 C 12.13 g/m*3 16 C 0 km/h
857 05-06-2011 03:29:04 15.7 C 11.91 g/m*3 15.7 C 0 km/h
858 05-06-2011 03:41:04 15.7 C 11.91 g/m*3 15.7 C 0 km/h
859 05-06-2011 03:53:04 15.4 C 11.69 g/m*3 15.4 C 0 km/h
860 05-06-2011 04:05:04 15.5 C 11.76 g/m*3 15.5 C 0 km/h
861 05-06-2011 04:17:04 15.5 C 11.76 g/m*3 15.5 C 0 km/h
862 05-06-2011 04:29:04 15.7 C 11.91 g/m*3 15.7 C 0 km/h
863 05-06-2011 04:41:04 15.1 C 11.48 g/m*3 15.1 C 0 km/h
864 05-06-2011 04:53:04 15.1 C 11.48 g/m*3 15.1 C 0 km/h
865 05-06-2011 05:05:04 15.2 C 11.55 g/m*3 15.2 C 0 km/h
866 05-06-2011 05:17:04 15.3 C 11.75 g/m*3 15.3 C 0 km/h
867 05-06-2011 05:29:04 15 C 11.54 g/m*3 15 C 0 km/h
868 05-06-2011 05:41:04 15.2 C 11.68 g/m*3 15.2 C 0 km/h
869 05-06-2011 05:53:04 15.6 C 11.97 g/m*3 15.6 C 0 km/h
870 05-06-2011 06:05:04 15.8 C 12.11 g/m*3 15.8 C 0 km/h
871 05-06-2011 06:17:04 16.1 C 12.2 g/m*3 16.1 C 0 km/h
872 05-06-2011 06:29:04 16.2 C 12.41 g/m*3 16.2 C 0 km/h
873 05-06-2011 06:41:04 16.4 C 12.56 g/m*3 16.4 C 0 km/h
874 05-06-2011 06:53:04 16.3 C 12.49 g/m*3 16.3 C 0 km/h
875 05-06-2011 07:05:05 16.3 C 12.49 g/m*3 16.3 C 0 km/h
Sensor: Nr:Datum:Temp:Abs-Feuchte:Windchill:Wind:
Aussen-T/F 876 05-06-2011 07:17:05 16.4 C 12.56 g/m*3 16.4 C 0 km/h
877 05-06-2011 07:29:05 16.5 C 12.5 g/m*3 16.5 C 0 km/h
878 05-06-2011 07:41:05 16.7 C 12.79 g/m*3 16.7 C 0 km/h
879 05-06-2011 07:53:05 17.4 C 13.19 g/m*3 17.4 C 0 km/h
880 05-06-2011 08:05:02 17.9 C 13.59 g/m*3 17.9 C 0 km/h
881 05-06-2011 08:17:02 18 C 13.52 g/m*3 18 C 0 km/h
882 05-06-2011 08:29:02 18.4 C 13.68 g/m*3 18.4 C 0 km/h
883 05-06-2011 08:41:02 18.5 C 13.61 g/m*3 18.5 C 0 km/h
884 05-06-2011 08:53:02 18.7 C 13.45 g/m*3 18.7 C 0 km/h
885 05-06-2011 09:05:01 18.6 C 12.73 g/m*3 18.6 C 0 km/h
886 05-06-2011 09:17:02 19.5 C 12.59 g/m*3 19.5 C 0 km/h
887 05-06-2011 09:29:02 19.9 C 12.54 g/m*3 19.9 C 0 km/h
888 05-06-2011 09:41:02 19.5 C 12.25 g/m*3 19.5 C 0 km/h
889 05-06-2011 09:53:01 19.5 C 12.42 g/m*3 19.5 C 0 km/h
890 05-06-2011 10:05:02 19.9 C 13.4 g/m*3 19.9 C 0 km/h
891 05-06-2011 10:17:02 20.2 C 13.46 g/m*3 20.2 C 0 km/h
892 05-06-2011 10:29:02 20.6 C 13.42 g/m*3 20.6 C 0 km/h
893 05-06-2011 10:41:01 21.8 C 14.01 g/m*3 21.8 C 0 km/h
894 05-06-2011 10:53:02 21.7 C 12.97 g/m*3 21.7 C 0 km/h
895 05-06-2011 11:05:01 21.7 C 12.97 g/m*3 21.7 C 0 km/h
896 05-06-2011 11:17:01 21.7 C 12.59 g/m*3 21.7 C 0 km/h
897 05-06-2011 11:29:02 22.2 C 12.96 g/m*3 22.2 C 0 km/h
898 05-06-2011 11:41:01 22.4 C 13.31 g/m*3 22.4 C 0 km/h
899 05-06-2011 11:53:02 23.2 C 13.1 g/m*3 23.2 C 0 km/h
900 05-06-2011 12:05:02 23.7 C 12.62 g/m*3 23.7 C 0 km/h
Sensor: Nr:Datum:Temp:Abs-Feuchte:Windchill:Wind:
Aussen-T/F 901 05-06-2011 12:17:02 24.1 C 12.25 g/m*3 24.1 C 0 km/h
902 05-06-2011 12:29:02 23.7 C 13.9 g/m*3 23.7 C 0 km/h
903 05-06-2011 12:41:02 24.4 C 14.02 g/m*3 24.4 C 0 km/h
904 05-06-2011 12:53:01 24.8 C 13.2 g/m*3 24.8 C 0 km/h
905 05-06-2011 13:05:02 25.3 C 14.05 g/m*3 25.3 C 0 km/h
906 05-06-2011 13:17:01 24.9 C 13.73 g/m*3 24.9 C 0 km/h
907 05-06-2011 13:29:01 24.8 C 13.88 g/m*3 24.8 C 0 km/h
908 05-06-2011 13:41:02 25 C 13.81 g/m*3 25 C 0 km/h
909 05-06-2011 13:53:02 25.6 C 15 g/m*3 25.6 C 0 km/h
910 05-06-2011 14:05:02 25.3 C 14.05 g/m*3 25.3 C 0 km/h
911 05-06-2011 14:17:01 24.7 C 15.16 g/m*3 24.7 C 0 km/h
912 05-06-2011 14:29:01 24.4 C 15.58 g/m*3 24.4 C 0 km/h
913 05-06-2011 14:41:02 27.5 C 14.55 g/m*3 27.5 C 0 km/h
914 05-06-2011 14:53:02 28.1 C 11.76 g/m*3 28.1 C 0 km/h
915 05-06-2011 15:05:02 27.7 C 13.91 g/m*3 27.7 C 0 km/h
916 05-06-2011 15:17:01 25.3 C 12.88 g/m*3 25.3 C 0 km/h
917 05-06-2011 15:29:01 23.7 C 14.33 g/m*3 23.7 C 0 km/h
918 05-06-2011 15:41:16 21.9 C 14.67 g/m*3 21.9 C 0 km/h
919 05-06-2011 15:53:16 21.1 C 14.56 g/m*3 21.1 C 0 km/h
920 05-06-2011 16:05:16 19.5 C 13.43 g/m*3 19.5 C 0 km/h
921 05-06-2011 16:17:16 17.4 C 12 g/m*3 17.4 C 0 km/h
922 05-06-2011 16:29:16 17.3 C 12.23 g/m*3 17.3 C 0 km/h
923 05-06-2011 16:41:16 17.6 C 12.6 g/m*3 17.6 C 0 km/h
924 05-06-2011 16:53:16 17.3 C 12.37 g/m*3 17.3 C 0 km/h
925 05-06-2011 17:05:02 17.4 C 12.6 g/m*3 17.4 C 0 km/h
Sensor: Nr:Datum:Temp:Abs-Feuchte:Windchill:Wind:
Aussen-T/F 926 05-06-2011 17:17:02 17.5 C 12.82 g/m*3 17.5 C 0 km/h
927 05-06-2011 17:29:02 17.7 C 12.98 g/m*3 17.7 C 0 km/h
928 05-06-2011 17:41:02 17.2 C 12.59 g/m*3 17.2 C 0 km/h
929 05-06-2011 17:53:02 17.2 C 12.59 g/m*3 17.2 C 0 km/h
930 05-06-2011 18:05:01 17.2 C 12.59 g/m*3 17.2 C 0 km/h
931 05-06-2011 18:17:02 16.9 C 12.51 g/m*3 16.9 C 0 km/h
932 05-06-2011 18:29:02 16.9 C 12.51 g/m*3 16.9 C 0 km/h
933 05-06-2011 18:41:02 16.8 C 12.44 g/m*3 16.8 C 0 km/h
934 05-06-2011 18:53:02 16.8 C 12.58 g/m*3 16.8 C 0 km/h
935 05-06-2011 19:05:03 17 C 12.59 g/m*3 17 C 0 km/h
936 05-06-2011 19:17:02 17.2 C 12.74 g/m*3 17.2 C 0 km/h
937 05-06-2011 19:29:02 17.4 C 13.04 g/m*3 17.4 C 0 km/h
938 05-06-2011 19:41:02 17.7 C 13.28 g/m*3 17.7 C 0 km/h
939 05-06-2011 19:53:01 17.8 C 13.36 g/m*3 17.8 C 0 km/h
940 05-06-2011 20:05:02 17.8 C 13.2 g/m*3 17.8 C 0 km/h
941 05-06-2011 20:17:01 17.8 C 13.2 g/m*3 17.8 C 0 km/h
942 05-06-2011 20:29:01 17.6 C 13.05 g/m*3 17.6 C 0 km/h
943 05-06-2011 20:41:02 17.3 C 12.82 g/m*3 17.3 C 0 km/h
944 05-06-2011 20:53:01 17.3 C 12.82 g/m*3 17.3 C 0 km/h
945 05-06-2011 21:05:02 17.2 C 12.74 g/m*3 17.2 C 0 km/h
946 05-06-2011 21:17:01 17 C 12.59 g/m*3 17 C 0 km/h
947 05-06-2011 21:29:01 16.8 C 12.58 g/m*3 16.8 C 0 km/h
948 05-06-2011 21:41:02 16.7 C 12.51 g/m*3 16.7 C 0 km/h
949 05-06-2011 21:53:01 16.7 C 12.65 g/m*3 16.7 C 0 km/h
950 05-06-2011 22:05:01 16.7 C 12.65 g/m*3 16.7 C 0 km/h
Sensor: Nr:Datum:Temp:Abs-Feuchte:Windchill:Wind:
Aussen-T/F 951 05-06-2011 22:17:02 16.8 C 12.72 g/m*3 16.8 C 0 km/h
952 05-06-2011 22:29:02 16.8 C 12.72 g/m*3 16.8 C 0 km/h
953 05-06-2011 22:41:01 16.4 C 12.42 g/m*3 16.4 C 0 km/h
954 05-06-2011 22:53:03 16.2 C 12.27 g/m*3 16.2 C 0 km/h
955 05-06-2011 23:06:05 16.1 C 12.2 g/m*3 16.1 C 0 km/h
956 05-06-2011 23:18:05 16 C 12.13 g/m*3 16 C 0 km/h
957 05-06-2011 23:30:05 15.9 C 12.05 g/m*3 15.9 C 0 km/h
958 05-06-2011 23:42:05 15.5 C 11.76 g/m*3 15.5 C 0 km/h
959 05-06-2011 23:54:05 15 C 11.41 g/m*3 15 C 0 km/h
960 06-06-2011 00:06:05 15.3 C 11.62 g/m*3 15.3 C 0 km/h
961 06-06-2011 00:18:05 15.3 C 11.75 g/m*3 15.3 C 0 km/h
962 06-06-2011 00:30:06 14.9 C 11.47 g/m*3 14.9 C 0 km/h
963 06-06-2011 00:42:06 15 C 11.41 g/m*3 15 C 0 km/h
964 06-06-2011 00:54:06 15 C 11.54 g/m*3 15 C 0 km/h
965 06-06-2011 01:06:06 15.1 C 11.61 g/m*3 15.1 C 0 km/h
966 06-06-2011 01:18:06 15.1 C 11.61 g/m*3 15.1 C 0 km/h
967 06-06-2011 01:30:06 14.9 C 11.6 g/m*3 14.9 C 0 km/h
968 06-06-2011 01:42:06 15 C 11.54 g/m*3 15 C 0 km/h
969 06-06-2011 01:54:06 15 C 11.54 g/m*3 15 C 0 km/h
970 06-06-2011 02:06:06 15.1 C 11.61 g/m*3 15.1 C 0 km/h
971 06-06-2011 02:18:06 15.1 C 11.61 g/m*3 15.1 C 0 km/h
972 06-06-2011 02:30:06 15.1 C 11.61 g/m*3 15.1 C 0 km/h
973 06-06-2011 02:42:06 15 C 11.54 g/m*3 15 C 0 km/h
974 06-06-2011 02:54:06 15 C 11.54 g/m*3 15 C 0 km/h
975 06-06-2011 03:06:06 15.1 C 11.61 g/m*3 15.1 C 0 km/h
Sensor: Nr:Datum:Temp:Abs-Feuchte:Windchill:Wind:
Aussen-T/F 976 06-06-2011 03:18:06 14.9 C 11.6 g/m*3 14.9 C 0 km/h
977 06-06-2011 03:30:06 15 C 11.54 g/m*3 15 C 0 km/h
978 06-06-2011 03:42:06 14.5 C 11.32 g/m*3 14.5 C 0 km/h
979 06-06-2011 03:54:06 14.4 C 11.25 g/m*3 14.4 C 0 km/h
980 06-06-2011 04:06:06 14.4 C 11.25 g/m*3 14.4 C 0 km/h
981 06-06-2011 04:18:06 13.8 C 10.84 g/m*3 13.8 C 0 km/h
982 06-06-2011 04:30:06 14 C 10.98 g/m*3 14 C 0 km/h
983 06-06-2011 04:42:07 14 C 10.98 g/m*3 14 C 0 km/h
984 06-06-2011 04:54:07 13.7 C 10.78 g/m*3 13.7 C 0 km/h
985 06-06-2011 05:06:07 14 C 10.98 g/m*3 14 C 0 km/h
986 06-06-2011 05:18:07 13.6 C 10.71 g/m*3 13.6 C 0 km/h
987 06-06-2011 05:30:07 13.6 C 10.71 g/m*3 13.6 C 0 km/h
988 06-06-2011 05:42:07 13.5 C 10.64 g/m*3 13.5 C 0 km/h
989 06-06-2011 05:54:07 13.7 C 10.78 g/m*3 13.7 C 0 km/h
990 06-06-2011 06:06:07 13.7 C 10.78 g/m*3 13.7 C 0 km/h
991 06-06-2011 06:18:07 14 C 10.98 g/m*3 14 C 0 km/h
992 06-06-2011 06:30:07 14.2 C 11.11 g/m*3 14.2 C 0 km/h
993 06-06-2011 06:42:07 14.4 C 11.25 g/m*3 14.4 C 0 km/h
994 06-06-2011 06:54:07 14.8 C 11.53 g/m*3 14.8 C 0 km/h
995 06-06-2011 07:06:07 14.9 C 11.6 g/m*3 14.9 C 0 km/h
996 06-06-2011 07:18:04 15.2 C 11.68 g/m*3 15.2 C 0 km/h
997 06-06-2011 07:30:04 15.4 C 11.82 g/m*3 15.4 C 0 km/h
998 06-06-2011 07:42:04 15.5 C 11.9 g/m*3 15.5 C 0 km/h
999 06-06-2011 07:54:03 15.7 C 12.04 g/m*3 15.7 C 0 km/h
1000 06-06-2011 08:06:02 16.1 C 12.34 g/m*3 16.1 C 0 km/h
Sensor: Nr:Datum:Temp:Abs-Feuchte:Windchill:Wind:
Aussen-T/F 1001 06-06-2011 08:18:02 16.8 C 12.87 g/m*3 16.8 C 0 km/h
1002 06-06-2011 08:30:02 17 C 12.88 g/m*3 17 C 0 km/h
1003 06-06-2011 08:42:02 18.3 C 13.76 g/m*3 18.3 C 0 km/h
1004 06-06-2011 08:54:02 18.1 C 13.44 g/m*3 18.1 C 0 km/h
1005 06-06-2011 09:06:01 18.3 C 13.29 g/m*3 18.3 C 0 km/h
1006 06-06-2011 09:18:02 18.1 C 12.82 g/m*3 18.1 C 0 km/h
1007 06-06-2011 09:30:02 18.1 C 12.98 g/m*3 18.1 C 0 km/h
1008 06-06-2011 09:42:02 18.3 C 12.98 g/m*3 18.3 C 0 km/h
1009 06-06-2011 09:54:02 18.8 C 13.37 g/m*3 18.8 C 0 km/h
1010 06-06-2011 10:06:02 19 C 13.53 g/m*3 19 C 0 km/h
1011 06-06-2011 10:18:02 19.6 C 13.34 g/m*3 19.6 C 0 km/h
1012 06-06-2011 10:30:02 20.7 C 13.14 g/m*3 20.7 C 0 km/h
1013 06-06-2011 10:42:02 21.3 C 11.93 g/m*3 21.3 C 0 km/h
1014 06-06-2011 10:54:02 21.4 C 12 g/m*3 21.4 C 0 km/h
1015 06-06-2011 11:06:02 21.9 C 11.77 g/m*3 21.9 C 0 km/h
1016 06-06-2011 11:18:02 22.9 C 10.83 g/m*3 22.9 C 0 km/h
1017 06-06-2011 11:30:02 21.5 C 10.75 g/m*3 21.5 C 0 km/h
1018 06-06-2011 11:42:02 22.3 C 10.86 g/m*3 22.3 C 0 km/h
1019 06-06-2011 11:54:02 22.9 C 11.24 g/m*3 22.9 C 0 km/h
1020 06-06-2011 12:06:02 23 C 11.1 g/m*3 23 C 0 km/h
1021 06-06-2011 12:18:02 22.9 C 10.83 g/m*3 22.9 C 0 km/h
1022 06-06-2011 12:30:02 23.5 C 10.79 g/m*3 23.5 C 0 km/h
1023 06-06-2011 12:42:02 23.9 C 11.03 g/m*3 23.9 C 0 km/h
1024 06-06-2011 12:54:02 24.2 C 10.78 g/m*3 24.2 C 0 km/h
1025 06-06-2011 13:06:01 24.6 C 11.25 g/m*3 24.6 C 0 km/h
Sensor: Nr:Datum:Temp:Abs-Feuchte:Windchill:Wind:
Aussen-T/F 1026 06-06-2011 13:18:02 24.6 C 10.35 g/m*3 24.6 C 0 km/h
1027 06-06-2011 13:30:02 29.1 C 10.11 g/m*3 29.1 C 0 km/h
1028 06-06-2011 13:42:01 27.8 C 9.95 g/m*3 27.8 C 0 km/h
1029 06-06-2011 13:54:02 27 C 9.01 g/m*3 27 C 0 km/h
1030 06-06-2011 14:06:01 28.3 C 9.68 g/m*3 28.3 C 0 km/h
1031 06-06-2011 14:18:01 27.3 C 9.42 g/m*3 27.3 C 0 km/h
1032 06-06-2011 14:30:01 26.7 C 9.37 g/m*3 26.7 C 0 km/h
1033 06-06-2011 14:42:02 26.4 C 8.96 g/m*3 26.4 C 0 km/h
1034 06-06-2011 14:54:02 26.5 C 10.01 g/m*3 26.5 C 0 km/h
1035 06-06-2011 15:06:02 26.2 C 8.86 g/m*3 26.2 C 0 km/h
1036 06-06-2011 15:18:01 25.8 C 9.87 g/m*3 25.8 C 0 km/h
1037 06-06-2011 15:30:01 25.5 C 11.6 g/m*3 25.5 C 0 km/h
1038 06-06-2011 15:42:02 27.2 C 10.15 g/m*3 27.2 C 0 km/h
1039 06-06-2011 15:54:02 25.1 C 9.26 g/m*3 25.1 C 0 km/h
1040 06-06-2011 16:06:02 24.8 C 10.24 g/m*3 24.8 C 0 km/h
1041 06-06-2011 16:18:01 25.1 C 10.19 g/m*3 25.1 C 0 km/h
1042 06-06-2011 16:30:01 26.1 C 10.28 g/m*3 26.1 C 0 km/h
1043 06-06-2011 16:42:02 25.8 C 10.11 g/m*3 25.8 C 0 km/h
1044 06-06-2011 16:54:02 23 C 8.63 g/m*3 23 C 0 km/h
1045 06-06-2011 17:06:02 21.1 C 8.84 g/m*3 21.1 C 0 km/h
1046 06-06-2011 17:18:01 18 C 9.83 g/m*3 18 C 0 km/h
1047 06-06-2011 17:30:01 16.9 C 10.79 g/m*3 16.9 C 0 km/h
1048 06-06-2011 17:42:02 16.4 C 10.89 g/m*3 16.4 C 0 km/h
1049 06-06-2011 17:54:01 16.3 C 11.38 g/m*3 16.3 C 0 km/h
1050 06-06-2011 18:06:02 16.4 C 11.72 g/m*3 16.4 C 0 km/h
Sensor: Nr:Datum:Temp:Abs-Feuchte:Windchill:Wind:
Aussen-T/F 1051 06-06-2011 18:18:02 17 C 12.01 g/m*3 17 C 0 km/h
1052 06-06-2011 18:30:02 16.8 C 12.01 g/m*3 16.8 C 0 km/h
1053 06-06-2011 18:42:01 17.2 C 12.3 g/m*3 17.2 C 0 km/h
1054 06-06-2011 18:54:02 17.2 C 12.3 g/m*3 17.2 C 0 km/h
1055 06-06-2011 19:06:01 17.2 C 12.3 g/m*3 17.2 C 0 km/h
1056 06-06-2011 19:18:02 17.5 C 12.67 g/m*3 17.5 C 0 km/h
1057 06-06-2011 19:30:03 17.8 C 12.9 g/m*3 17.8 C 0 km/h
1058 06-06-2011 19:42:01 18.1 C 12.82 g/m*3 18.1 C 0 km/h
1059 06-06-2011 19:54:02 18.1 C 12.82 g/m*3 18.1 C 0 km/h
1060 06-06-2011 20:06:02 18.1 C 12.67 g/m*3 18.1 C 0 km/h
1061 06-06-2011 20:18:02 18.1 C 12.67 g/m*3 18.1 C 0 km/h
1062 06-06-2011 20:30:02 18.1 C 12.67 g/m*3 18.1 C 0 km/h
1063 06-06-2011 20:42:49 17.5 C 12.52 g/m*3 17.5 C 0 km/h
1064 06-06-2011 20:54:49 17.2 C 12.45 g/m*3 17.2 C 0 km/h
1065 06-06-2011 21:06:49 16.8 C 12.15 g/m*3 16.8 C 0 km/h
1066 06-06-2011 21:18:03 16.5 C 12.08 g/m*3 16.5 C 0 km/h
1067 06-06-2011 21:30:03 16.3 C 11.93 g/m*3 16.3 C 0 km/h
1068 06-06-2011 21:42:02 16.2 C 12 g/m*3 16.2 C 0 km/h
1069 06-06-2011 21:55:02 15.9 C 11.78 g/m*3 15.9 C 0 km/h
1070 06-06-2011 22:07:02 15.9 C 11.92 g/m*3 15.9 C 0 km/h
1071 06-06-2011 22:19:02 15.6 C 11.7 g/m*3 15.6 C 0 km/h
1072 06-06-2011 22:31:02 15.3 C 11.49 g/m*3 15.3 C 0 km/h
1073 06-06-2011 22:43:02 15.8 C 11.98 g/m*3 15.8 C 0 km/h
1074 06-06-2011 22:55:02 15.6 C 11.84 g/m*3 15.6 C 0 km/h
1075 06-06-2011 23:07:03 15.5 C 11.76 g/m*3 15.5 C 0 km/h
Sensor: Nr:Datum:Temp:Abs-Feuchte:Windchill:Wind:
Aussen-T/F 1076 06-06-2011 23:19:03 15.7 C 11.91 g/m*3 15.7 C 0 km/h
1077 06-06-2011 23:31:03 15.6 C 11.84 g/m*3 15.6 C 0 km/h
1078 06-06-2011 23:43:03 15.6 C 11.84 g/m*3 15.6 C 0 km/h
1079 06-06-2011 23:55:03 15.4 C 11.69 g/m*3 15.4 C 0 km/h
1080 07-06-2011 00:07:03 15 C 11.41 g/m*3 15 C 0 km/h
1081 07-06-2011 00:19:03 15.2 C 11.55 g/m*3 15.2 C 0 km/h
1082 07-06-2011 00:31:03 15.2 C 11.55 g/m*3 15.2 C 0 km/h
1083 07-06-2011 00:43:03 15.1 C 11.48 g/m*3 15.1 C 0 km/h
1084 07-06-2011 00:55:03 15.2 C 11.55 g/m*3 15.2 C 0 km/h
1085 07-06-2011 01:07:03 15.3 C 11.75 g/m*3 15.3 C 0 km/h
1086 07-06-2011 01:19:03 15.3 C 11.75 g/m*3 15.3 C 0 km/h
1087 07-06-2011 01:31:03 15.3 C 11.75 g/m*3 15.3 C 0 km/h
1088 07-06-2011 01:43:03 15.5 C 11.9 g/m*3 15.5 C 0 km/h
1089 07-06-2011 01:55:03 15.5 C 11.9 g/m*3 15.5 C 0 km/h
1090 07-06-2011 02:07:03 15.6 C 11.97 g/m*3 15.6 C 0 km/h
1091 07-06-2011 02:19:03 15.7 C 12.04 g/m*3 15.7 C 0 km/h
1092 07-06-2011 02:31:03 15.7 C 12.04 g/m*3 15.7 C 0 km/h
1093 07-06-2011 02:43:03 15.7 C 12.04 g/m*3 15.7 C 0 km/h
1094 07-06-2011 02:55:03 15.5 C 11.9 g/m*3 15.5 C 0 km/h
1095 07-06-2011 03:07:04 15.5 C 11.9 g/m*3 15.5 C 0 km/h
1096 07-06-2011 03:19:04 15.4 C 11.82 g/m*3 15.4 C 0 km/h
1097 07-06-2011 03:31:04 15 C 11.54 g/m*3 15 C 0 km/h
1098 07-06-2011 03:43:04 14.9 C 11.6 g/m*3 14.9 C 0 km/h
1099 07-06-2011 03:55:04 14.8 C 11.53 g/m*3 14.8 C 0 km/h
1100 07-06-2011 04:07:04 15 C 11.54 g/m*3 15 C 0 km/h
Sensor: Nr:Datum:Temp:Abs-Feuchte:Windchill:Wind:
Aussen-T/F 1101 07-06-2011 04:19:04 15.1 C 11.61 g/m*3 15.1 C 0 km/h
1102 07-06-2011 04:31:04 15.2 C 11.68 g/m*3 15.2 C 0 km/h
1103 07-06-2011 04:43:04 15.2 C 11.68 g/m*3 15.2 C 0 km/h
1104 07-06-2011 04:55:04 15.1 C 11.61 g/m*3 15.1 C 0 km/h
1105 07-06-2011 05:07:04 15 C 11.54 g/m*3 15 C 0 km/h
1106 07-06-2011 05:19:04 15 C 11.54 g/m*3 15 C 0 km/h
1107 07-06-2011 05:31:04 15 C 11.54 g/m*3 15 C 0 km/h
1108 07-06-2011 05:43:04 15 C 11.54 g/m*3 15 C 0 km/h
1109 07-06-2011 05:55:04 15 C 11.54 g/m*3 15 C 0 km/h
1110 07-06-2011 06:07:04 14.7 C 11.33 g/m*3 14.7 C 0 km/h
1111 07-06-2011 06:19:04 14.8 C 11.4 g/m*3 14.8 C 0 km/h
1112 07-06-2011 06:31:04 14.8 C 11.4 g/m*3 14.8 C 0 km/h
1113 07-06-2011 06:43:04 14.9 C 11.47 g/m*3 14.9 C 0 km/h
1114 07-06-2011 06:55:04 15.2 C 11.42 g/m*3 15.2 C 0 km/h
1115 07-06-2011 07:07:02 15.4 C 11.04 g/m*3 15.4 C 0 km/h
1116 07-06-2011 07:19:02 15.7 C 10.84 g/m*3 15.7 C 0 km/h
1117 07-06-2011 07:31:02 16 C 10.9 g/m*3 16 C 0 km/h
1118 07-06-2011 07:43:02 16.2 C 10.76 g/m*3 16.2 C 0 km/h
1119 07-06-2011 07:55:02 16.6 C 10.03 g/m*3 16.6 C 0 km/h
1120 07-06-2011 08:07:02 16.9 C 9.92 g/m*3 16.9 C 0 km/h
1121 07-06-2011 08:19:01 17.2 C 9.67 g/m*3 17.2 C 0 km/h
1122 07-06-2011 08:31:02 17.8 C 9.87 g/m*3 17.8 C 0 km/h
1123 07-06-2011 08:43:02 17.9 C 9.47 g/m*3 17.9 C 0 km/h
1124 07-06-2011 08:55:02 18.2 C 8.86 g/m*3 18.2 C 0 km/h
1125 07-06-2011 09:07:02 18.4 C 8.81 g/m*3 18.4 C 0 km/h
Sensor: Nr:Datum:Temp:Abs-Feuchte:Windchill:Wind:
Aussen-T/F 1126 07-06-2011 09:19:01 18.5 C 8.54 g/m*3 18.5 C 0 km/h
1127 07-06-2011 09:31:02 18.1 C 8.5 g/m*3 18.1 C 0 km/h
1128 07-06-2011 09:43:02 18.4 C 8.81 g/m*3 18.4 C 0 km/h
1129 07-06-2011 09:55:02 18.9 C 8.59 g/m*3 18.9 C 0 km/h
1130 07-06-2011 10:07:02 18.8 C 8.21 g/m*3 18.8 C 0 km/h
1131 07-06-2011 10:19:02 19.2 C 8.24 g/m*3 19.2 C 0 km/h
1132 07-06-2011 10:31:02 19.1 C 8.03 g/m*3 19.1 C 0 km/h
1133 07-06-2011 10:43:02 19.5 C 9.06 g/m*3 19.5 C 0 km/h
1134 07-06-2011 10:55:02 19.1 C 8.85 g/m*3 19.1 C 0 km/h
1135 07-06-2011 11:07:02 19.1 C 8.2 g/m*3 19.1 C 0 km/h
1136 07-06-2011 11:19:02 19.2 C 8.41 g/m*3 19.2 C 0 km/h
1137 07-06-2011 11:31:02 19.3 C 8.46 g/m*3 19.3 C 0 km/h
1138 07-06-2011 11:43:02 19.5 C 8.39 g/m*3 19.5 C 0 km/h
1139 07-06-2011 11:55:02 19.7 C 8.66 g/m*3 19.7 C 0 km/h
1140 07-06-2011 12:07:02 20.8 C 8.69 g/m*3 20.8 C 0 km/h
1141 07-06-2011 12:19:02 21.1 C 8.66 g/m*3 21.1 C 0 km/h
1142 07-06-2011 12:31:02 21.1 C 8.48 g/m*3 21.1 C 0 km/h
1143 07-06-2011 12:43:02 20.9 C 8.74 g/m*3 20.9 C 0 km/h
1144 07-06-2011 12:55:02 21.2 C 8.52 g/m*3 21.2 C 0 km/h
1145 07-06-2011 13:07:01 21.9 C 8.68 g/m*3 21.9 C 0 km/h
1146 07-06-2011 13:19:02 22.3 C 8.89 g/m*3 22.3 C 0 km/h
1147 07-06-2011 13:31:01 25.7 C 8.38 g/m*3 25.7 C 0 km/h
1148 07-06-2011 13:43:01 29.1 C 8.66 g/m*3 29.1 C 0 km/h
1149 07-06-2011 13:55:02 30.5 C 8.1 g/m*3 30.5 C 0 km/h
1150 07-06-2011 14:07:01 30.3 C 8.32 g/m*3 30.3 C 0 km/h
Sensor: Nr:Datum:Temp:Abs-Feuchte:Windchill:Wind:
Aussen-T/F 1151 07-06-2011 14:19:01 30.3 C 8.01 g/m*3 30.3 C 0 km/h
1152 07-06-2011 14:31:02 28.9 C 7.71 g/m*3 28.9 C 0 km/h
1153 07-06-2011 14:43:02 29 C 8.04 g/m*3 29 C 0 km/h
1154 07-06-2011 14:55:02 27.1 C 8.02 g/m*3 27.1 C 0 km/h
1155 07-06-2011 15:07:02 30.3 C 8.32 g/m*3 30.3 C 0 km/h
1156 07-06-2011 15:19:02 29.5 C 8.26 g/m*3 29.5 C 0 km/h
1157 07-06-2011 15:31:02 30 C 8.49 g/m*3 30 C 0 km/h
1158 07-06-2011 15:43:02 30.5 C 8.1 g/m*3 30.5 C 0 km/h
1159 07-06-2011 15:55:02 28.6 C 7.59 g/m*3 28.6 C 0 km/h
1160 07-06-2011 16:07:02 30 C 7.88 g/m*3 30 C 0 km/h
1161 07-06-2011 16:19:02 31.8 C 7.01 g/m*3 31.8 C 0 km/h
1162 07-06-2011 16:31:02 30.1 C 7.62 g/m*3 30.1 C 0 km/h
1163 07-06-2011 16:43:02 31.7 C 6.98 g/m*3 31.7 C 0 km/h
1164 07-06-2011 16:55:02 32.1 C 6.79 g/m*3 32.1 C 0 km/h
1165 07-06-2011 17:07:02 31.5 C 7.23 g/m*3 31.5 C 0 km/h
1166 07-06-2011 17:19:03 29.9 C 8.14 g/m*3 29.9 C 0 km/h
1167 07-06-2011 17:31:02 30.6 C 7.83 g/m*3 30.6 C 0 km/h
1168 07-06-2011 17:43:02 29.3 C 8.17 g/m*3 29.3 C 0 km/h
1169 07-06-2011 17:55:02 27.1 C 11.13 g/m*3 27.1 C 0 km/h
1170 07-06-2011 18:07:01 24.3 C 11.29 g/m*3 24.3 C 0 km/h
1171 07-06-2011 18:19:02 25.2 C 11.64 g/m*3 25.2 C 0 km/h
1172 07-06-2011 18:31:01 29.7 C 8.95 g/m*3 29.7 C 0 km/h
1173 07-06-2011 18:43:01 29.5 C 8.85 g/m*3 29.5 C 0 km/h
1174 07-06-2011 18:55:02 28.3 C 9.4 g/m*3 28.3 C 0 km/h
1175 07-06-2011 19:07:01 27.3 C 11.25 g/m*3 27.3 C 0 km/h
Sensor: Nr:Datum:Temp:Abs-Feuchte:Windchill:Wind:
Aussen-T/F 1176 07-06-2011 19:19:01 27.7 C 11.77 g/m*3 27.7 C 0 km/h
1177 07-06-2011 19:31:02 26.5 C 11.77 g/m*3 26.5 C 0 km/h
1178 07-06-2011 19:43:02 24.5 C 11.41 g/m*3 24.5 C 0 km/h
1179 07-06-2011 19:55:02 23.1 C 11.58 g/m*3 23.1 C 0 km/h
1180 07-06-2011 20:07:02 22.1 C 11.71 g/m*3 22.1 C 0 km/h
1181 07-06-2011 20:19:02 21.9 C 11.96 g/m*3 21.9 C 0 km/h
1182 07-06-2011 20:31:02 21.2 C 11.49 g/m*3 21.2 C 0 km/h
1183 07-06-2011 20:43:02 20.5 C 11.39 g/m*3 20.5 C 0 km/h
1184 07-06-2011 20:55:02 20 C 11.06 g/m*3 20 C 0 km/h
1185 07-06-2011 21:07:03 19.7 C 11.21 g/m*3 19.7 C 0 km/h
1186 07-06-2011 21:19:02 19.6 C 10.97 g/m*3 19.6 C 0 km/h
1187 07-06-2011 21:31:04 19.4 C 11.35 g/m*3 19.4 C 0 km/h
1188 07-06-2011 21:43:04 19.1 C 11.15 g/m*3 19.1 C 0 km/h
1189 07-06-2011 21:55:02 19 C 11.41 g/m*3 19 C 0 km/h
1190 07-06-2011 22:07:02 18.5 C 11.39 g/m*3 18.5 C 0 km/h
1191 07-06-2011 22:19:02 18.9 C 11.5 g/m*3 18.9 C 0 km/h
1192 07-06-2011 22:32:01 19.7 C 11.21 g/m*3 19.7 C 0 km/h
1193 07-06-2011 22:44:01 19.5 C 10.91 g/m*3 19.5 C 0 km/h
1194 07-06-2011 22:56:01 19 C 11.41 g/m*3 19 C 0 km/h
1195 07-06-2011 23:08:01 18.6 C 11.78 g/m*3 18.6 C 0 km/h
1196 07-06-2011 23:20:01 18.5 C 11.87 g/m*3 18.5 C 0 km/h
1197 07-06-2011 23:32:01 19.5 C 10.07 g/m*3 19.5 C 0 km/h
1198 07-06-2011 23:44:01 19.1 C 9.51 g/m*3 19.1 C 0 km/h
1199 07-06-2011 23:56:02 17.7 C 10.11 g/m*3 17.7 C 0 km/h
1200 08-06-2011 00:08:02 16.8 C 11.29 g/m*3 16.8 C 0 km/h
Sensor: Nr:Datum:Temp:Abs-Feuchte:Windchill:Wind:
Aussen-T/F 1201 08-06-2011 00:20:02 16.4 C 11.31 g/m*3 16.4 C 0 km/h
1202 08-06-2011 00:32:02 16.4 C 11.45 g/m*3 16.4 C 0 km/h
1203 08-06-2011 00:44:02 16.3 C 11.52 g/m*3 16.3 C 0 km/h
1204 08-06-2011 00:56:02 16.2 C 11.58 g/m*3 16.2 C 0 km/h
1205 08-06-2011 01:08:02 16.1 C 11.65 g/m*3 16.1 C 0 km/h
1206 08-06-2011 01:20:02 16 C 11.72 g/m*3 16 C 0 km/h
1207 08-06-2011 01:32:02 16 C 11.72 g/m*3 16 C 0 km/h
1208 08-06-2011 01:44:02 16 C 11.85 g/m*3 16 C 0 km/h
1209 08-06-2011 01:56:02 15.9 C 11.92 g/m*3 15.9 C 0 km/h
1210 08-06-2011 02:08:02 15.7 C 11.77 g/m*3 15.7 C 0 km/h
1211 08-06-2011 02:20:02 15.6 C 11.7 g/m*3 15.6 C 0 km/h
1212 08-06-2011 02:32:02 15.5 C 11.63 g/m*3 15.5 C 0 km/h
1213 08-06-2011 02:44:02 15.4 C 11.56 g/m*3 15.4 C 0 km/h
1214 08-06-2011 02:56:02 15.4 C 11.56 g/m*3 15.4 C 0 km/h
1215 08-06-2011 03:08:02 15.3 C 11.49 g/m*3 15.3 C 0 km/h
1216 08-06-2011 03:20:02 15.2 C 11.55 g/m*3 15.2 C 0 km/h
1217 08-06-2011 03:32:02 15.2 C 11.55 g/m*3 15.2 C 0 km/h
1218 08-06-2011 03:44:02 15.2 C 11.55 g/m*3 15.2 C 0 km/h
1219 08-06-2011 03:56:03 15.1 C 11.48 g/m*3 15.1 C 0 km/h
1220 08-06-2011 04:08:03 15.1 C 11.48 g/m*3 15.1 C 0 km/h
1221 08-06-2011 04:20:03 15.2 C 11.55 g/m*3 15.2 C 0 km/h
1222 08-06-2011 04:32:03 15.1 C 11.48 g/m*3 15.1 C 0 km/h
1223 08-06-2011 04:44:03 15.1 C 11.48 g/m*3 15.1 C 0 km/h
1224 08-06-2011 04:56:03 15.1 C 11.48 g/m*3 15.1 C 0 km/h
1225 08-06-2011 05:08:03 15 C 11.41 g/m*3 15 C 0 km/h
Sensor: Nr:Datum:Temp:Abs-Feuchte:Windchill:Wind:
Aussen-T/F 1226 08-06-2011 05:20:03 14.9 C 11.47 g/m*3 14.9 C 0 km/h
1227 08-06-2011 05:32:03 15 C 11.41 g/m*3 15 C 0 km/h
1228 08-06-2011 05:44:03 15 C 11.41 g/m*3 15 C 0 km/h
1229 08-06-2011 05:56:03 15.1 C 11.48 g/m*3 15.1 C 0 km/h
1230 08-06-2011 06:08:03 15 C 11.41 g/m*3 15 C 0 km/h
1231 08-06-2011 06:20:03 13.4 C 10.46 g/m*3 13.4 C 0 km/h
1232 08-06-2011 06:32:03 12.6 C 9.96 g/m*3 12.6 C 0 km/h
1233 08-06-2011 06:44:03 12.5 C 9.78 g/m*3 12.5 C 0 km/h
1234 08-06-2011 06:56:03 12.4 C 9.51 g/m*3 12.4 C 0 km/h
1235 08-06-2011 07:08:02 12.1 C 9.22 g/m*3 12.1 C 0 km/h
1236 08-06-2011 07:20:01 12.1 C 9.12 g/m*3 12.1 C 0 km/h
1237 08-06-2011 07:32:02 11.9 C 9.11 g/m*3 11.9 C 0 km/h
1238 08-06-2011 07:44:02 11.8 C 9.05 g/m*3 11.8 C 0 km/h
1239 08-06-2011 07:56:02 11.4 C 8.62 g/m*3 11.4 C 0 km/h
1240 08-06-2011 08:08:02 11.4 C 8.72 g/m*3 11.4 C 0 km/h
1241 08-06-2011 08:20:01 11.2 C 8.62 g/m*3 11.2 C 0 km/h
1242 08-06-2011 08:32:02 11.5 C 8.88 g/m*3 11.5 C 0 km/h
1243 08-06-2011 08:44:02 11.4 C 8.72 g/m*3 11.4 C 0 km/h
1244 08-06-2011 08:56:01 11.3 C 8.57 g/m*3 11.3 C 0 km/h
1245 08-06-2011 09:08:02 11.7 C 8.89 g/m*3 11.7 C 0 km/h
1246 08-06-2011 09:20:02 11.8 C 8.95 g/m*3 11.8 C 0 km/h
1247 08-06-2011 09:32:01 11.8 C 8.84 g/m*3 11.8 C 0 km/h
1248 08-06-2011 09:44:01 12 C 8.95 g/m*3 12 C 0 km/h
1249 08-06-2011 09:56:01 11.7 C 8.79 g/m*3 11.7 C 0 km/h
1250 08-06-2011 10:08:01 11.9 C 8.9 g/m*3 11.9 C 0 km/h
Sensor: Nr:Datum:Temp:Abs-Feuchte:Windchill:Wind:
Aussen-T/F 1251 08-06-2011 10:20:02 12.3 C 8.9 g/m*3 12.3 C 0 km/h
1252 08-06-2011 10:32:01 12.4 C 8.85 g/m*3 12.4 C 0 km/h
1253 08-06-2011 10:44:01 12.2 C 8.52 g/m*3 12.2 C 0 km/h
1254 08-06-2011 10:56:03 12 C 8.1 g/m*3 12 C 0 km/h
1255 08-06-2011 11:08:02 12.1 C 8.15 g/m*3 12.1 C 0 km/h
1256 08-06-2011 11:20:02 12.4 C 8.19 g/m*3 12.4 C 0 km/h
1257 08-06-2011 11:32:02 13.5 C 9.01 g/m*3 13.5 C 0 km/h
1258 08-06-2011 11:44:02 14.1 C 7.89 g/m*3 14.1 C 0 km/h
1259 08-06-2011 11:56:02 14.5 C 7.59 g/m*3 14.5 C 0 km/h
1260 08-06-2011 12:08:01 15.4 C 7.75 g/m*3 15.4 C 0 km/h
1261 08-06-2011 12:20:02 15.9 C 6.77 g/m*3 15.9 C 0 km/h
1262 08-06-2011 12:32:02 15.8 C 6.6 g/m*3 15.8 C 0 km/h
1263 08-06-2011 12:44:02 16.2 C 6.34 g/m*3 16.2 C 0 km/h
1264 08-06-2011 12:56:02 17.3 C 6.48 g/m*3 17.3 C 0 km/h
1265 08-06-2011 13:08:02 18 C 6.6 g/m*3 18 C 0 km/h
1266 08-06-2011 13:20:02 18.6 C 7 g/m*3 18.6 C 0 km/h
1267 08-06-2011 13:32:02 19.9 C 7.04 g/m*3 19.9 C 0 km/h
1268 08-06-2011 13:44:02 22 C 6.6 g/m*3 22 C 0 km/h
1269 08-06-2011 13:56:01 24.2 C 6.82 g/m*3 24.2 C 0 km/h
1270 08-06-2011 14:08:02 20.5 C 6.58 g/m*3 20.5 C 0 km/h
1271 08-06-2011 14:20:01 18.9 C 6.97 g/m*3 18.9 C 0 km/h
1272 08-06-2011 14:32:01 18.6 C 7.16 g/m*3 18.6 C 0 km/h
1273 08-06-2011 14:44:01 22.9 C 7.36 g/m*3 22.9 C 0 km/h
1274 08-06-2011 14:56:01 19.6 C 6.75 g/m*3 19.6 C 0 km/h
1275 08-06-2011 15:08:01 21.1 C 6.82 g/m*3 21.1 C 0 km/h
Sensor: Nr:Datum:Temp:Abs-Feuchte:Windchill:Wind:
Aussen-T/F 1276 08-06-2011 15:20:01 22.4 C 6.75 g/m*3 22.4 C 0 km/h
1277 08-06-2011 15:32:01 19.9 C 7.04 g/m*3 19.9 C 0 km/h
1278 08-06-2011 15:44:01 20.3 C 7.03 g/m*3 20.3 C 0 km/h
1279 08-06-2011 15:56:02 20.8 C 7.42 g/m*3 20.8 C 0 km/h
1280 08-06-2011 16:08:02 20.3 C 6.16 g/m*3 20.3 C 0 km/h
1281 08-06-2011 16:20:03 19.4 C 5.51 g/m*3 19.4 C 0 km/h
1282 08-06-2011 16:32:02 20.4 C 5.66 g/m*3 20.4 C 0 km/h
1283 08-06-2011 16:44:02 19.2 C 5.11 g/m*3 19.2 C 0 km/h
1284 08-06-2011 16:56:02 20.9 C 5.28 g/m*3 20.9 C 0 km/h
1285 08-06-2011 17:08:02 20.6 C 5.55 g/m*3 20.6 C 0 km/h
1286 08-06-2011 17:20:02 20.9 C 5.46 g/m*3 20.9 C 0 km/h
1287 08-06-2011 17:32:02 19.6 C 5.06 g/m*3 19.6 C 0 km/h
1288 08-06-2011 17:44:02 18.9 C 5.67 g/m*3 18.9 C 0 km/h
1289 08-06-2011 17:56:02 18.6 C 5.73 g/m*3 18.6 C 0 km/h
1290 08-06-2011 18:08:02 19.4 C 5.51 g/m*3 19.4 C 0 km/h
1291 08-06-2011 18:20:02 18.6 C 5.73 g/m*3 18.6 C 0 km/h
1292 08-06-2011 18:32:02 18.2 C 6.22 g/m*3 18.2 C 0 km/h
1293 08-06-2011 18:44:02 17.9 C 6.11 g/m*3 17.9 C 0 km/h
1294 08-06-2011 18:56:02 17.6 C 6.3 g/m*3 17.6 C 0 km/h
1295 08-06-2011 19:08:01 17.7 C 6.34 g/m*3 17.7 C 0 km/h
1296 08-06-2011 19:20:02 17.4 C 6.97 g/m*3 17.4 C 0 km/h
1297 08-06-2011 19:32:01 17.3 C 7.66 g/m*3 17.3 C 0 km/h
1298 08-06-2011 19:44:01 17.3 C 7.22 g/m*3 17.3 C 0 km/h
1299 08-06-2011 19:56:02 16.9 C 6.47 g/m*3 16.9 C 0 km/h
1300 08-06-2011 20:08:01 16.3 C 7.08 g/m*3 16.3 C 0 km/h
Sensor: Nr:Datum:Temp:Abs-Feuchte:Windchill:Wind:
Aussen-T/F 1301 08-06-2011 20:20:01 16.3 C 7.08 g/m*3 16.3 C 0 km/h
1302 08-06-2011 20:32:02 16.3 C 7.08 g/m*3 16.3 C 0 km/h
1303 08-06-2011 20:44:02 15 C 8.21 g/m*3 15 C 0 km/h
1304 08-06-2011 20:56:02 14.9 C 8.16 g/m*3 14.9 C 0 km/h
1305 08-06-2011 21:08:02 14.7 C 8.18 g/m*3 14.7 C 0 km/h
1306 08-06-2011 21:20:02 14.4 C 8.03 g/m*3 14.4 C 0 km/h
1307 08-06-2011 21:32:02 14.2 C 8.3 g/m*3 14.2 C 0 km/h
1308 08-06-2011 21:44:02 14 C 8.32 g/m*3 14 C 0 km/h
1309 08-06-2011 21:56:02 13.7 C 8.41 g/m*3 13.7 C 0 km/h
1310 08-06-2011 22:08:02 13.6 C 8.47 g/m*3 13.6 C 0 km/h
1311 08-06-2011 22:20:02 13.2 C 8.27 g/m*3 13.2 C 0 km/h
1312 08-06-2011 22:32:03 13.4 C 8.49 g/m*3 13.4 C 0 km/h
1313 08-06-2011 22:44:03 13.2 C 8.15 g/m*3 13.2 C 0 km/h
1314 08-06-2011 22:56:03 13.2 C 8.04 g/m*3 13.2 C 0 km/h
1315 08-06-2011 23:08:02 13.3 C 7.86 g/m*3 13.3 C 0 km/h
1316 08-06-2011 23:21:04 13.4 C 7.79 g/m*3 13.4 C 0 km/h
1317 08-06-2011 23:33:04 13.4 C 7.79 g/m*3 13.4 C 0 km/h
1318 08-06-2011 23:45:04 13.4 C 7.79 g/m*3 13.4 C 0 km/h
1319 08-06-2011 23:57:04 13.4 C 7.79 g/m*3 13.4 C 0 km/h
1320 09-06-2011 00:09:04 13.4 C 7.79 g/m*3 13.4 C 0 km/h
1321 09-06-2011 00:21:04 13.4 C 7.79 g/m*3 13.4 C 0 km/h
1322 09-06-2011 00:33:04 13.4 C 7.79 g/m*3 13.4 C 0 km/h
1323 09-06-2011 00:45:04 13.4 C 7.79 g/m*3 13.4 C 0 km/h
1324 09-06-2011 00:57:05 13.4 C 7.79 g/m*3 13.4 C 0 km/h
1325 09-06-2011 01:09:05 13.4 C 7.79 g/m*3 13.4 C 0 km/h
Sensor: Nr:Datum:Temp:Abs-Feuchte:Windchill:Wind:
Aussen-T/F 1326 09-06-2011 01:21:05 11.7 C 7.64 g/m*3 11.7 C 0 km/h
1327 09-06-2011 01:33:05 11.7 C 7.64 g/m*3 11.7 C 0 km/h
1328 09-06-2011 01:45:05 11.7 C 7.64 g/m*3 11.7 C 0 km/h
1329 09-06-2011 01:57:05 11.1 C 7.55 g/m*3 11.1 C 0 km/h
1330 09-06-2011 02:09:05 11.1 C 7.55 g/m*3 11.1 C 0 km/h
1331 09-06-2011 02:21:05 11.1 C 7.55 g/m*3 11.1 C 0 km/h
1332 09-06-2011 02:33:05 11.1 C 7.55 g/m*3 11.1 C 0 km/h
1333 09-06-2011 02:45:05 11.1 C 7.55 g/m*3 11.1 C 0 km/h
1334 09-06-2011 02:57:05 11.1 C 7.55 g/m*3 11.1 C 0 km/h
1335 09-06-2011 03:09:05 11.1 C 7.55 g/m*3 11.1 C 0 km/h
1336 09-06-2011 03:21:05 11.1 C 7.55 g/m*3 11.1 C 0 km/h
1337 09-06-2011 03:33:05 11.1 C 7.55 g/m*3 11.1 C 0 km/h
1338 09-06-2011 03:45:05 11.1 C 7.55 g/m*3 11.1 C 0 km/h
1339 09-06-2011 03:57:05 11.1 C 7.55 g/m*3 11.1 C 0 km/h
1340 09-06-2011 04:09:05 11.1 C 7.55 g/m*3 11.1 C 0 km/h
1341 09-06-2011 04:21:05 11.1 C 7.55 g/m*3 11.1 C 0 km/h
1342 09-06-2011 04:33:05 11.1 C 7.55 g/m*3 11.1 C 0 km/h
1343 09-06-2011 04:45:05 11.1 C 7.55 g/m*3 11.1 C 0 km/h
1344 09-06-2011 04:57:06 11.1 C 7.55 g/m*3 11.1 C 0 km/h
1345 09-06-2011 05:09:06 11.1 C 7.55 g/m*3 11.1 C 0 km/h
1346 09-06-2011 05:21:06 11.1 C 7.55 g/m*3 11.1 C 0 km/h
1347 09-06-2011 05:33:06 11.1 C 7.55 g/m*3 11.1 C 0 km/h
1348 09-06-2011 05:45:06 11.1 C 7.55 g/m*3 11.1 C 0 km/h
1349 09-06-2011 05:57:06 11.1 C 7.55 g/m*3 11.1 C 0 km/h
1350 09-06-2011 06:09:06 11.1 C 7.55 g/m*3 11.1 C 0 km/h
Sensor: Nr:Datum:Temp:Abs-Feuchte:Windchill:Wind:
Aussen-T/F 1351 09-06-2011 06:21:06 8.8 C 7.66 g/m*3 8.8 C 0 km/h
1352 09-06-2011 06:33:06 8.7 C 7.61 g/m*3 8.7 C 0 km/h
1353 09-06-2011 06:45:02 8.6 C 7.56 g/m*3 8.6 C 0 km/h
1354 09-06-2011 06:57:02 8.8 C 7.66 g/m*3 8.8 C 0 km/h
1355 09-06-2011 07:09:02 9.3 C 7.91 g/m*3 9.3 C 0 km/h
1356 09-06-2011 07:21:02 9.5 C 8.01 g/m*3 9.5 C 0 km/h
1357 09-06-2011 07:33:02 9.7 C 8.11 g/m*3 9.7 C 0 km/h
1358 09-06-2011 07:45:02 9.7 C 8.11 g/m*3 9.7 C 0 km/h
1359 09-06-2011 07:57:02 9.7 C 8.11 g/m*3 9.7 C 0 km/h
1360 09-06-2011 08:09:01 9.7 C 8.11 g/m*3 9.7 C 0 km/h
1361 09-06-2011 08:21:02 9.7 C 8.11 g/m*3 9.7 C 0 km/h
1362 09-06-2011 08:33:02 9.7 C 8.11 g/m*3 9.7 C 0 km/h
1363 09-06-2011 08:45:02 9.7 C 8.11 g/m*3 9.7 C 0 km/h
1364 09-06-2011 08:57:02 9.7 C 8.11 g/m*3 9.7 C 0 km/h
1365 09-06-2011 09:09:03 9.7 C 8.11 g/m*3 9.7 C 0 km/h
1366 09-06-2011 09:21:02 9.7 C 8.11 g/m*3 9.7 C 0 km/h
1367 09-06-2011 09:33:03 9.7 C 8.11 g/m*3 9.7 C 0 km/h
1368 09-06-2011 09:45:02 9.7 C 8.11 g/m*3 9.7 C 0 km/h
1369 09-06-2011 09:57:03 9.7 C 8.11 g/m*3 9.7 C 0 km/h
1370 09-06-2011 10:09:01 9.7 C 8.11 g/m*3 9.7 C 0 km/h
1371 09-06-2011 10:21:02 9.7 C 8.11 g/m*3 9.7 C 0 km/h
1372 09-06-2011 10:33:02 9.7 C 8.11 g/m*3 9.7 C 0 km/h
1373 09-06-2011 10:58:02 9.7 C 8.11 g/m*3 9.7 C 0 km/h
1374 09-06-2011 11:10:03 9.7 C 8.11 g/m*3 9.7 C 0 km/h
1375 09-06-2011 11:22:02 9.7 C 8.11 g/m*3 9.7 C 0 km/h
Sensor: Nr:Datum:Temp:Abs-Feuchte:Windchill:Wind:
Aussen-T/F 1376 09-06-2011 11:34:02 9.7 C 8.11 g/m*3 9.7 C 0 km/h
1377 09-06-2011 11:46:02 9.7 C 8.11 g/m*3 9.7 C 0 km/h
1378 09-06-2011 11:58:02 18.6 C 6.37 g/m*3 18.6 C 0 km/h
1379 09-06-2011 12:10:03 18.8 C 6.76 g/m*3 18.8 C 0 km/h
1380 09-06-2011 12:22:03 18.3 C 6.1 g/m*3 18.3 C 0 km/h
1381 09-06-2011 12:34:02 18.1 C 8.03 g/m*3 18.1 C 0 km/h
1382 09-06-2011 12:46:02 20 C 6.91 g/m*3 20 C 0 km/h
1383 09-06-2011 12:58:03 20.9 C 6.56 g/m*3 20.9 C 0 km/h
1384 09-06-2011 13:10:01 20.9 C 6.19 g/m*3 20.9 C 0 km/h
1385 09-06-2011 13:22:02 20.1 C 6.78 g/m*3 20.1 C 0 km/h
1386 09-06-2011 13:34:02 20.1 C 6.61 g/m*3 20.1 C 0 km/h
1387 09-06-2011 13:46:02 18.8 C 6.76 g/m*3 18.8 C 0 km/h
1388 09-06-2011 13:58:02 17.1 C 7.57 g/m*3 17.1 C 0 km/h
1389 09-06-2011 14:10:03 16.7 C 6.54 g/m*3 16.7 C 0 km/h
1390 09-06-2011 14:22:02 16.2 C 7.58 g/m*3 16.2 C 0 km/h
1391 09-06-2011 14:34:02 15.6 C 7.98 g/m*3 15.6 C 0 km/h
1392 09-06-2011 14:46:01 15.5 C 8.06 g/m*3 15.5 C 0 km/h
1393 09-06-2011 14:58:01 15.7 C 8.16 g/m*3 15.7 C 0 km/h
1394 09-06-2011 15:10:02 16.2 C 8.14 g/m*3 16.2 C 0 km/h
1395 09-06-2011 15:22:01 17 C 8.68 g/m*3 17 C 0 km/h
1396 09-06-2011 15:34:01 17.3 C 8.25 g/m*3 17.3 C 0 km/h
1397 09-06-2011 15:46:01 17.9 C 8.24 g/m*3 17.9 C 0 km/h
1398 09-06-2011 15:58:01 18.2 C 8.39 g/m*3 18.2 C 0 km/h
1399 09-06-2011 16:10:02 17.6 C 8.7 g/m*3 17.6 C 0 km/h
1400 09-06-2011 16:22:01 17.2 C 8.35 g/m*3 17.2 C 0 km/h
Sensor: Nr:Datum:Temp:Abs-Feuchte:Windchill:Wind:
Aussen-T/F 1401 09-06-2011 16:34:01 17.1 C 8.44 g/m*3 17.1 C 0 km/h
1402 09-06-2011 16:46:01 16.8 C 9.01 g/m*3 16.8 C 0 km/h
1403 09-06-2011 16:58:01 16.6 C 9.18 g/m*3 16.6 C 0 km/h
1404 09-06-2011 17:10:01 16.5 C 8.99 g/m*3 16.5 C 0 km/h
1405 09-06-2011 17:22:02 16.8 C 9.01 g/m*3 16.8 C 0 km/h
1406 09-06-2011 17:34:01 16.8 C 9.01 g/m*3 16.8 C 0 km/h
1407 09-06-2011 17:46:02 17.2 C 8.93 g/m*3 17.2 C 0 km/h
1408 09-06-2011 17:58:02 17.8 C 8.8 g/m*3 17.8 C 0 km/h
1409 09-06-2011 18:10:02 20.4 C 7.78 g/m*3 20.4 C 0 km/h
1410 09-06-2011 18:22:02 21.3 C 6.9 g/m*3 21.3 C 0 km/h
1411 09-06-2011 18:34:02 23.3 C 6.69 g/m*3 23.3 C 0 km/h
1412 09-06-2011 18:46:02 22.2 C 5.5 g/m*3 22.2 C 0 km/h
1413 09-06-2011 18:58:02 22.5 C 6.19 g/m*3 22.5 C 0 km/h
1414 09-06-2011 19:10:01 22.3 C 7.5 g/m*3 22.3 C 0 km/h
1415 09-06-2011 19:22:02 22.3 C 7.5 g/m*3 22.3 C 0 km/h
1416 09-06-2011 19:34:02 22.3 C 7.5 g/m*3 22.3 C 0 km/h
1417 09-06-2011 19:46:02 22.3 C 7.5 g/m*3 22.3 C 0 km/h
1418 09-06-2011 19:58:02 22.3 C 7.5 g/m*3 22.3 C 0 km/h
1419 09-06-2011 20:10:02 22.3 C 7.5 g/m*3 22.3 C 0 km/h
1420 09-06-2011 20:22:02 22.3 C 7.5 g/m*3 22.3 C 0 km/h
1421 09-06-2011 20:34:02 22.3 C 7.5 g/m*3 22.3 C 0 km/h
1422 09-06-2011 20:46:02 22.3 C 7.5 g/m*3 22.3 C 0 km/h
1423 09-06-2011 20:58:02 22.3 C 7.5 g/m*3 22.3 C 0 km/h
1424 09-06-2011 21:10:02 13 C 9.3 g/m*3 13 C 0 km/h
1425 09-06-2011 21:22:01 12.9 C 9.47 g/m*3 12.9 C 0 km/h
Sensor: Nr:Datum:Temp:Abs-Feuchte:Windchill:Wind:
Aussen-T/F 1426 09-06-2011 21:34:02 12.9 C 9.58 g/m*3 12.9 C 0 km/h
1427 09-06-2011 21:46:02 12.5 C 9.46 g/m*3 12.5 C 0 km/h
1428 09-06-2011 21:58:02 12.4 C 9.4 g/m*3 12.4 C 0 km/h
1429 09-06-2011 22:10:02 12.4 C 9.4 g/m*3 12.4 C 0 km/h
1430 09-06-2011 22:22:01 11.5 C 8.99 g/m*3 11.5 C 0 km/h
1431 09-06-2011 22:35:03 11.5 C 8.99 g/m*3 11.5 C 0 km/h
1432 09-06-2011 22:47:03 11.4 C 8.93 g/m*3 11.4 C 0 km/h
1433 09-06-2011 22:59:03 11.4 C 8.93 g/m*3 11.4 C 0 km/h
1434 09-06-2011 23:11:03 11.4 C 8.93 g/m*3 11.4 C 0 km/h
1435 09-06-2011 23:23:03 11.4 C 8.93 g/m*3 11.4 C 0 km/h
1436 09-06-2011 23:35:03 11.4 C 8.93 g/m*3 11.4 C 0 km/h
1437 09-06-2011 23:47:03 11.4 C 8.93 g/m*3 11.4 C 0 km/h
1438 09-06-2011 23:59:03 11.4 C 8.93 g/m*3 11.4 C 0 km/h
1439 10-06-2011 00:11:03 11.4 C 8.93 g/m*3 11.4 C 0 km/h
1440 10-06-2011 00:23:03 11.4 C 8.93 g/m*3 11.4 C 0 km/h
1441 10-06-2011 00:35:03 11.4 C 8.93 g/m*3 11.4 C 0 km/h
1442 10-06-2011 00:47:04 11.4 C 8.93 g/m*3 11.4 C 0 km/h
1443 10-06-2011 00:59:04 11.4 C 8.93 g/m*3 11.4 C 0 km/h
1444 10-06-2011 01:11:04 11.4 C 8.93 g/m*3 11.4 C 0 km/h
1445 10-06-2011 01:23:04 11.4 C 8.93 g/m*3 11.4 C 0 km/h
1446 10-06-2011 01:35:04 11.4 C 8.93 g/m*3 11.4 C 0 km/h
1447 10-06-2011 01:47:04 11.4 C 8.93 g/m*3 11.4 C 0 km/h
1448 10-06-2011 01:59:04 11.4 C 8.93 g/m*3 11.4 C 0 km/h
1449 10-06-2011 02:11:04 11.4 C 8.93 g/m*3 11.4 C 0 km/h
1450 10-06-2011 02:23:04 11.4 C 8.93 g/m*3 11.4 C 0 km/h
Sensor: Nr:Datum:Temp:Abs-Feuchte:Windchill:Wind:
Aussen-T/F 1451 10-06-2011 02:35:04 11.4 C 8.93 g/m*3 11.4 C 0 km/h
1452 10-06-2011 02:47:04 11.4 C 8.93 g/m*3 11.4 C 0 km/h
1453 10-06-2011 02:59:04 11.4 C 8.93 g/m*3 11.4 C 0 km/h
1454 10-06-2011 03:11:04 11.4 C 8.93 g/m*3 11.4 C 0 km/h
1455 10-06-2011 03:23:04 11.4 C 8.93 g/m*3 11.4 C 0 km/h
1456 10-06-2011 03:35:04 11.4 C 8.93 g/m*3 11.4 C 0 km/h
1457 10-06-2011 03:47:04 11.4 C 8.93 g/m*3 11.4 C 0 km/h
1458 10-06-2011 03:59:04 11.4 C 8.93 g/m*3 11.4 C 0 km/h
1459 10-06-2011 04:11:04 11.4 C 8.93 g/m*3 11.4 C 0 km/h
1460 10-06-2011 04:23:04 11.4 C 8.93 g/m*3 11.4 C 0 km/h
1461 10-06-2011 04:35:04 11.4 C 8.93 g/m*3 11.4 C 0 km/h
1462 10-06-2011 04:47:04 11.4 C 8.93 g/m*3 11.4 C 0 km/h
1463 10-06-2011 04:59:05 11.4 C 8.93 g/m*3 11.4 C 0 km/h
1464 10-06-2011 05:11:05 11.4 C 8.93 g/m*3 11.4 C 0 km/h
1465 10-06-2011 05:23:05 11.4 C 8.93 g/m*3 11.4 C 0 km/h
1466 10-06-2011 05:35:05 11.4 C 8.93 g/m*3 11.4 C 0 km/h
1467 10-06-2011 05:47:05 11.4 C 8.93 g/m*3 11.4 C 0 km/h
1468 10-06-2011 05:59:05 11.4 C 8.93 g/m*3 11.4 C 0 km/h
1469 10-06-2011 06:11:05 11.4 C 8.93 g/m*3 11.4 C 0 km/h
1470 10-06-2011 06:23:05 11.4 C 8.93 g/m*3 11.4 C 0 km/h
1471 10-06-2011 06:35:03 11.5 C 9.09 g/m*3 11.5 C 0 km/h
1472 10-06-2011 06:47:02 11.8 C 9.26 g/m*3 11.8 C 0 km/h
1473 10-06-2011 06:59:02 12 C 9.27 g/m*3 12 C 0 km/h
1474 10-06-2011 07:11:03 12.1 C 9.33 g/m*3 12.1 C 0 km/h
1475 10-06-2011 07:23:02 12.5 C 9.46 g/m*3 12.5 C 0 km/h
Sensor: Nr:Datum:Temp:Abs-Feuchte:Windchill:Wind:
Aussen-T/F 1476 10-06-2011 07:35:02 12.5 C 9.46 g/m*3 12.5 C 0 km/h
1477 10-06-2011 07:47:01 13 C 9.07 g/m*3 13 C 0 km/h
1478 10-06-2011 07:59:01 13 C 9.07 g/m*3 13 C 0 km/h
1479 10-06-2011 08:11:02 13 C 9.07 g/m*3 13 C 0 km/h
1480 10-06-2011 08:23:01 13 C 9.07 g/m*3 13 C 0 km/h
1481 10-06-2011 08:35:02 13 C 9.07 g/m*3 13 C 0 km/h
1482 10-06-2011 08:47:02 13 C 9.07 g/m*3 13 C 0 km/h
1483 10-06-2011 08:59:02 13 C 9.07 g/m*3 13 C 0 km/h
1484 10-06-2011 09:11:02 13 C 9.07 g/m*3 13 C 0 km/h
1485 10-06-2011 09:23:01 13 C 9.07 g/m*3 13 C 0 km/h
1486 10-06-2011 09:35:02 13 C 9.07 g/m*3 13 C 0 km/h
1487 10-06-2011 09:47:02 13 C 9.07 g/m*3 13 C 0 km/h
1488 10-06-2011 09:59:02 13 C 9.07 g/m*3 13 C 0 km/h
1489 10-06-2011 10:11:02 13 C 9.07 g/m*3 13 C 0 km/h
1490 10-06-2011 10:23:01 13 C 9.07 g/m*3 13 C 0 km/h
1491 10-06-2011 10:35:02 13 C 9.07 g/m*3 13 C 0 km/h
1492 10-06-2011 10:47:01 13 C 9.07 g/m*3 13 C 0 km/h
1493 10-06-2011 10:59:01 13 C 9.07 g/m*3 13 C 0 km/h
1494 10-06-2011 11:11:02 13 C 9.07 g/m*3 13 C 0 km/h
1495 10-06-2011 11:23:02 13 C 9.07 g/m*3 13 C 0 km/h
1496 10-06-2011 11:35:02 13 C 9.07 g/m*3 13 C 0 km/h
1497 10-06-2011 11:47:01 13 C 9.07 g/m*3 13 C 0 km/h
1498 10-06-2011 11:59:01 13 C 9.07 g/m*3 13 C 0 km/h
1499 10-06-2011 12:11:02 13 C 9.07 g/m*3 13 C 0 km/h
1500 10-06-2011 12:23:02 13 C 9.07 g/m*3 13 C 0 km/h
Sensor: Nr:Datum:Temp:Abs-Feuchte:Windchill:Wind:
Aussen-T/F 1501 10-06-2011 12:35:01 13 C 9.07 g/m*3 13 C 0 km/h
1502 10-06-2011 12:47:02 13 C 9.07 g/m*3 13 C 0 km/h
1503 10-06-2011 12:59:02 13 C 9.07 g/m*3 13 C 0 km/h
1504 10-06-2011 13:11:01 13 C 9.07 g/m*3 13 C 0 km/h
1505 10-06-2011 13:23:02 13 C 9.07 g/m*3 13 C 0 km/h
1506 10-06-2011 13:35:01 13 C 9.07 g/m*3 13 C 0 km/h
1507 10-06-2011 13:47:02 13 C 9.07 g/m*3 13 C 0 km/h
1508 10-06-2011 13:59:02 13 C 9.07 g/m*3 13 C 0 km/h
1509 10-06-2011 14:11:01 13 C 9.07 g/m*3 13 C 0 km/h
1510 10-06-2011 14:23:01 13 C 9.07 g/m*3 13 C 0 km/h
1511 10-06-2011 14:35:01 13 C 9.07 g/m*3 13 C 0 km/h
1512 10-06-2011 14:47:02 13 C 9.07 g/m*3 13 C 0 km/h
1513 10-06-2011 14:59:02 13 C 9.07 g/m*3 13 C 0 km/h
1514 10-06-2011 15:11:02 13 C 9.07 g/m*3 13 C 0 km/h
1515 10-06-2011 15:23:02 21.5 C 6.03 g/m*3 21.5 C 0 km/h
1516 10-06-2011 15:35:02 21.7 C 5.91 g/m*3 21.7 C 0 km/h
1517 10-06-2011 15:47:02 22 C 5.43 g/m*3 22 C 0 km/h
1518 10-06-2011 15:59:02 24.1 C 5.69 g/m*3 24.1 C 0 km/h
1519 10-06-2011 16:11:02 26.7 C 5.06 g/m*3 26.7 C 0 km/h
1520 10-06-2011 16:23:02 27 C 5.15 g/m*3 27 C 0 km/h
1521 10-06-2011 16:35:01 24 C 4.35 g/m*3 24 C 0 km/h
1522 10-06-2011 16:47:03 27.6 C 5.32 g/m*3 27.6 C 0 km/h
1523 10-06-2011 16:59:03 26.3 C 4.95 g/m*3 26.3 C 0 km/h
1524 10-06-2011 17:11:03 23.3 C 4.39 g/m*3 23.3 C 0 km/h
1525 10-06-2011 17:23:02 22.5 C 4.79 g/m*3 22.5 C 0 km/h
Sensor: Nr:Datum:Temp:Abs-Feuchte:Windchill:Wind:
Aussen-T/F 1526 10-06-2011 17:35:02 22.5 C 4.79 g/m*3 22.5 C 0 km/h
1527 10-06-2011 17:47:02 20.6 C 6.62 g/m*3 20.6 C 0 km/h
1528 10-06-2011 17:59:02 19.3 C 7.63 g/m*3 19.3 C 0 km/h
1529 10-06-2011 18:11:01 18.8 C 7.57 g/m*3 18.8 C 0 km/h
1530 10-06-2011 18:23:01 18.1 C 6.18 g/m*3 18.1 C 0 km/h
1531 10-06-2011 18:35:02 18.2 C 6.53 g/m*3 18.2 C 0 km/h
1532 10-06-2011 18:47:02 18.2 C 6.53 g/m*3 18.2 C 0 km/h
1533 10-06-2011 18:59:02 18.2 C 6.53 g/m*3 18.2 C 0 km/h
1534 10-06-2011 19:11:02 18.2 C 6.53 g/m*3 18.2 C 0 km/h
1535 10-06-2011 19:23:02 18.2 C 7.77 g/m*3 18.2 C 0 km/h
1536 10-06-2011 19:35:02 18.2 C 7.77 g/m*3 18.2 C 0 km/h
1537 10-06-2011 19:47:02 18.2 C 7.77 g/m*3 18.2 C 0 km/h
1538 10-06-2011 19:59:02 18.2 C 7.77 g/m*3 18.2 C 0 km/h
1539 10-06-2011 20:11:02 18.2 C 7.77 g/m*3 18.2 C 0 km/h
1540 10-06-2011 20:23:02 18.2 C 7.77 g/m*3 18.2 C 0 km/h
1541 10-06-2011 20:35:02 18.2 C 7.77 g/m*3 18.2 C 0 km/h
1542 10-06-2011 20:47:01 18.2 C 7.77 g/m*3 18.2 C 0 km/h
1543 10-06-2011 20:59:01 18.2 C 7.77 g/m*3 18.2 C 0 km/h
1544 10-06-2011 21:11:01 18.2 C 7.77 g/m*3 18.2 C 0 km/h
1545 10-06-2011 21:23:01 18.2 C 7.77 g/m*3 18.2 C 0 km/h
1546 10-06-2011 21:35:01 14.3 C 8.72 g/m*3 14.3 C 0 km/h
1547 10-06-2011 21:47:01 14.3 C 8.72 g/m*3 14.3 C 0 km/h
1548 10-06-2011 21:59:01 14.3 C 8.72 g/m*3 14.3 C 0 km/h
1549 10-06-2011 22:11:02 14.4 C 8.9 g/m*3 14.4 C 0 km/h
1550 10-06-2011 22:24:03 14.4 C 8.9 g/m*3 14.4 C 0 km/h
Sensor: Nr:Datum:Temp:Abs-Feuchte:Windchill:Wind:
Aussen-T/F 1551 10-06-2011 22:36:03 14.4 C 8.9 g/m*3 14.4 C 0 km/h
1552 10-06-2011 22:48:03 14.4 C 8.9 g/m*3 14.4 C 0 km/h
1553 10-06-2011 23:00:03 14.4 C 8.9 g/m*3 14.4 C 0 km/h
1554 10-06-2011 23:12:03 14.4 C 8.9 g/m*3 14.4 C 0 km/h
1555 10-06-2011 23:24:03 14.4 C 8.9 g/m*3 14.4 C 0 km/h
1556 10-06-2011 23:36:03 15.1 C 7.87 g/m*3 15.1 C 0 km/h
1557 10-06-2011 23:48:03 15.1 C 7.87 g/m*3 15.1 C 0 km/h
1558 11-06-2011 00:00:03 15.1 C 7.87 g/m*3 15.1 C 0 km/h
1559 11-06-2011 00:12:03 12.6 C 9.07 g/m*3 12.6 C 0 km/h
1560 11-06-2011 00:24:03 12.6 C 9.07 g/m*3 12.6 C 0 km/h
1561 11-06-2011 00:36:03 12.6 C 9.07 g/m*3 12.6 C 0 km/h
1562 11-06-2011 00:48:03 12.6 C 9.07 g/m*3 12.6 C 0 km/h
1563 11-06-2011 01:00:03 12.6 C 9.07 g/m*3 12.6 C 0 km/h
1564 11-06-2011 01:12:03 12.6 C 9.07 g/m*3 12.6 C 0 km/h
1565 11-06-2011 01:24:03 12.6 C 9.07 g/m*3 12.6 C 0 km/h
1566 11-06-2011 01:36:04 12.6 C 9.07 g/m*3 12.6 C 0 km/h
1567 11-06-2011 01:48:04 12.6 C 9.07 g/m*3 12.6 C 0 km/h
1568 11-06-2011 02:00:04 12.6 C 9.07 g/m*3 12.6 C 0 km/h
1569 11-06-2011 02:12:04 12.6 C 9.07 g/m*3 12.6 C 0 km/h
1570 11-06-2011 02:24:04 12.6 C 9.07 g/m*3 12.6 C 0 km/h
1571 11-06-2011 02:36:04 12.6 C 9.07 g/m*3 12.6 C 0 km/h
1572 11-06-2011 02:48:04 12.6 C 9.07 g/m*3 12.6 C 0 km/h
1573 11-06-2011 03:00:04 12.6 C 9.07 g/m*3 12.6 C 0 km/h
1574 11-06-2011 03:12:04 12.6 C 9.07 g/m*3 12.6 C 0 km/h
1575 11-06-2011 03:24:04 12.6 C 9.07 g/m*3 12.6 C 0 km/h
Sensor: Nr:Datum:Temp:Abs-Feuchte:Windchill:Wind:
Aussen-T/F 1576 11-06-2011 03:36:04 12.6 C 9.07 g/m*3 12.6 C 0 km/h
1577 11-06-2011 03:48:04 12.6 C 9.07 g/m*3 12.6 C 0 km/h
1578 11-06-2011 04:00:04 12.6 C 9.07 g/m*3 12.6 C 0 km/h
1579 11-06-2011 04:12:04 12.6 C 9.07 g/m*3 12.6 C 0 km/h
1580 11-06-2011 04:24:04 12.6 C 9.07 g/m*3 12.6 C 0 km/h
1581 11-06-2011 04:36:04 12.6 C 9.07 g/m*3 12.6 C 0 km/h
1582 11-06-2011 04:48:04 12.6 C 9.07 g/m*3 12.6 C 0 km/h
1583 11-06-2011 05:00:04 12.6 C 9.07 g/m*3 12.6 C 0 km/h
1584 11-06-2011 05:12:04 12.6 C 9.07 g/m*3 12.6 C 0 km/h
1585 11-06-2011 05:24:04 12.6 C 9.07 g/m*3 12.6 C 0 km/h
1586 11-06-2011 05:36:04 12.6 C 9.07 g/m*3 12.6 C 0 km/h
1587 11-06-2011 05:48:05 12.6 C 9.07 g/m*3 12.6 C 0 km/h
1588 11-06-2011 06:00:05 12.6 C 9.07 g/m*3 12.6 C 0 km/h
1589 11-06-2011 06:12:05 12.6 C 9.07 g/m*3 12.6 C 0 km/h
1590 11-06-2011 06:24:05 12.6 C 9.07 g/m*3 12.6 C 0 km/h
1591 11-06-2011 06:36:05 12.6 C 9.07 g/m*3 12.6 C 0 km/h
1592 11-06-2011 06:48:05 12.6 C 9.07 g/m*3 12.6 C 0 km/h
1593 11-06-2011 07:00:05 12.6 C 9.07 g/m*3 12.6 C 0 km/h
1594 11-06-2011 07:12:05 12.6 C 9.07 g/m*3 12.6 C 0 km/h
1595 11-06-2011 07:24:05 10 C 8.36 g/m*3 10 C 0 km/h
1596 11-06-2011 07:36:05 10.5 C 8.73 g/m*3 10.5 C 0 km/h
1597 11-06-2011 07:48:02 11.2 C 9.02 g/m*3 11.2 C 0 km/h
1598 11-06-2011 08:00:02 10.8 C 8.8 g/m*3 10.8 C 0 km/h
1599 11-06-2011 08:12:02 10.8 C 8.8 g/m*3 10.8 C 0 km/h
1600 11-06-2011 08:24:02 12.2 C 9.39 g/m*3 12.2 C 0 km/h
Sensor: Nr:Datum:Temp:Abs-Feuchte:Windchill:Wind:
Aussen-T/F 1601 11-06-2011 08:36:01 11.9 C 8.9 g/m*3 11.9 C 0 km/h
1602 11-06-2011 08:48:02 11.9 C 8.9 g/m*3 11.9 C 0 km/h
1603 11-06-2011 09:00:02 11.9 C 8.9 g/m*3 11.9 C 0 km/h
1604 11-06-2011 09:12:01 11.9 C 8.9 g/m*3 11.9 C 0 km/h
1605 11-06-2011 09:24:02 13.4 C 7.32 g/m*3 13.4 C 0 km/h
1606 11-06-2011 09:36:01 13.1 C 6.96 g/m*3 13.1 C 0 km/h
1607 11-06-2011 09:48:03 13.5 C 7.49 g/m*3 13.5 C 0 km/h
1608 11-06-2011 10:00:03 13.6 C 7.3 g/m*3 13.6 C 0 km/h
1609 11-06-2011 10:12:02 13.6 C 7.3 g/m*3 13.6 C 0 km/h
1610 11-06-2011 10:24:02 13.6 C 7.3 g/m*3 13.6 C 0 km/h
1611 11-06-2011 10:36:02 13.6 C 7.3 g/m*3 13.6 C 0 km/h
1612 11-06-2011 10:48:02 13.6 C 7.3 g/m*3 13.6 C 0 km/h
1613 11-06-2011 11:00:02 13.6 C 7.3 g/m*3 13.6 C 0 km/h
1614 11-06-2011 11:12:01 13.6 C 7.3 g/m*3 13.6 C 0 km/h
1615 11-06-2011 11:24:02 13.6 C 7.3 g/m*3 13.6 C 0 km/h
1616 11-06-2011 11:36:02 13.6 C 7.3 g/m*3 13.6 C 0 km/h
1617 11-06-2011 11:48:01 13.6 C 7.3 g/m*3 13.6 C 0 km/h
1618 11-06-2011 12:00:01 13.6 C 7.3 g/m*3 13.6 C 0 km/h
1619 11-06-2011 12:12:01 13.6 C 7.3 g/m*3 13.6 C 0 km/h
1620 11-06-2011 12:24:01 13.6 C 7.3 g/m*3 13.6 C 0 km/h
1621 11-06-2011 12:36:02 13.6 C 7.3 g/m*3 13.6 C 0 km/h
1622 11-06-2011 12:48:02 13.6 C 7.3 g/m*3 13.6 C 0 km/h
1623 11-06-2011 13:00:02 17.8 C 5.01 g/m*3 17.8 C 0 km/h
1624 11-06-2011 13:12:02 17.8 C 4.71 g/m*3 17.8 C 0 km/h
1625 11-06-2011 13:24:01 21.4 C 5.44 g/m*3 21.4 C 0 km/h
Sensor: Nr:Datum:Temp:Abs-Feuchte:Windchill:Wind:
Aussen-T/F 1626 11-06-2011 13:36:02 22.7 C 4.24 g/m*3 22.7 C 0 km/h
1627 11-06-2011 13:48:02 20.2 C 4.9 g/m*3 20.2 C 0 km/h
1628 11-06-2011 14:00:02 20.3 C 5.28 g/m*3 20.3 C 0 km/h
1629 11-06-2011 14:12:02 23.7 C 5.13 g/m*3 23.7 C 0 km/h
1630 11-06-2011 14:24:01 20.8 C 4.89 g/m*3 20.8 C 0 km/h
1631 11-06-2011 14:36:02 19.8 C 4.95 g/m*3 19.8 C 0 km/h
1632 11-06-2011 14:48:02 21.7 C 4.77 g/m*3 21.7 C 0 km/h
1633 11-06-2011 15:00:02 25.9 C 4.84 g/m*3 25.9 C 0 km/h
1634 11-06-2011 15:12:02 27.5 C 5.29 g/m*3 27.5 C 0 km/h
1635 11-06-2011 15:24:02 27.6 C 5.32 g/m*3 27.6 C 0 km/h
1636 11-06-2011 15:36:02 22.5 C 3.99 g/m*3 22.5 C 0 km/h
1637 11-06-2011 15:48:02 27.4 C 5.26 g/m*3 27.4 C 0 km/h
1638 11-06-2011 16:00:02 26.3 C 4.95 g/m*3 26.3 C 0 km/h
1639 11-06-2011 16:12:02 22.7 C 4.04 g/m*3 22.7 C 0 km/h
1640 11-06-2011 16:24:02 25.5 C 4.73 g/m*3 25.5 C 0 km/h
1641 11-06-2011 16:36:01 25.5 C 4.73 g/m*3 25.5 C 0 km/h
1642 11-06-2011 16:48:02 25.5 C 4.73 g/m*3 25.5 C 0 km/h
1643 11-06-2011 17:00:02 25.5 C 4.73 g/m*3 25.5 C 0 km/h
1644 11-06-2011 17:12:01 25.5 C 4.73 g/m*3 25.5 C 0 km/h
1645 11-06-2011 17:24:01 25.5 C 4.73 g/m*3 25.5 C 0 km/h
1646 11-06-2011 17:36:01 25.5 C 4.73 g/m*3 25.5 C 0 km/h
1647 11-06-2011 17:48:02 25.5 C 4.73 g/m*3 25.5 C 0 km/h
1648 11-06-2011 18:00:03 25.5 C 4.73 g/m*3 25.5 C 0 km/h
1649 11-06-2011 18:12:02 25.5 C 4.73 g/m*3 25.5 C 0 km/h
1650 11-06-2011 18:24:02 25.5 C 4.73 g/m*3 25.5 C 0 km/h
Sensor: Nr:Datum:Temp:Abs-Feuchte:Windchill:Wind:
Aussen-T/F 1651 11-06-2011 18:36:02 23.6 C 4.89 g/m*3 23.6 C 0 km/h
1652 11-06-2011 18:48:01 23.6 C 4.89 g/m*3 23.6 C 0 km/h
1653 11-06-2011 19:00:01 22.1 C 5.27 g/m*3 22.1 C 0 km/h
1654 11-06-2011 19:12:02 18.9 C 5.51 g/m*3 18.9 C 0 km/h
1655 11-06-2011 19:24:01 18.9 C 5.51 g/m*3 18.9 C 0 km/h
1656 11-06-2011 19:36:02 18 C 7.22 g/m*3 18 C 0 km/h
1657 11-06-2011 19:48:01 17.6 C 7.8 g/m*3 17.6 C 0 km/h
1658 11-06-2011 20:00:01 16.8 C 7.72 g/m*3 16.8 C 0 km/h
1659 11-06-2011 20:12:02 16.6 C 7.63 g/m*3 16.6 C 0 km/h
1660 11-06-2011 20:24:01 16.2 C 7.86 g/m*3 16.2 C 0 km/h
1661 11-06-2011 20:36:02 15.7 C 8.16 g/m*3 15.7 C 0 km/h
1662 11-06-2011 20:48:01 15.4 C 7.88 g/m*3 15.4 C 0 km/h
1663 11-06-2011 21:00:01 15 C 7.82 g/m*3 15 C 0 km/h
1664 11-06-2011 21:12:02 15.8 C 6.6 g/m*3 15.8 C 0 km/h
1665 11-06-2011 21:24:01 15.7 C 6.69 g/m*3 15.7 C 0 km/h
1666 11-06-2011 21:36:01 15.2 C 6.88 g/m*3 15.2 C 0 km/h
1667 11-06-2011 21:48:01 14.9 C 6.88 g/m*3 14.9 C 0 km/h
1668 11-06-2011 22:00:01 14.5 C 6.84 g/m*3 14.5 C 0 km/h
1669 11-06-2011 22:12:02 14.1 C 7.28 g/m*3 14.1 C 0 km/h
1670 11-06-2011 22:24:02 13.6 C 7.41 g/m*3 13.6 C 0 km/h
1671 11-06-2011 22:36:01 12.8 C 7.39 g/m*3 12.8 C 0 km/h
1672 11-06-2011 22:49:03 12.4 C 7.54 g/m*3 12.4 C 0 km/h
1673 11-06-2011 23:01:03 12.4 C 7.43 g/m*3 12.4 C 0 km/h
1674 11-06-2011 23:13:03 12.2 C 7.34 g/m*3 12.2 C 0 km/h
1675 11-06-2011 23:25:03 12.1 C 7.4 g/m*3 12.1 C 0 km/h
Sensor: Nr:Datum:Temp:Abs-Feuchte:Windchill:Wind:
Aussen-T/F 1676 11-06-2011 23:37:04 11.7 C 7.64 g/m*3 11.7 C 0 km/h
1677 11-06-2011 23:49:04 11.1 C 7.45 g/m*3 11.1 C 0 km/h

Legende:
   Min
   Max


Maximal/Minimal-Werte vom 29.05.2011 - 11.06.2011

Sensor Min Max Avg
Temp
(Aussen-T/F)
8.6 °C
02-06-2011  06:02:20
33.8 °C
30-05-2011  18:12:02
17.83 °C
Abs-Feuchte
(Aussen-T/F)
3.74 g/m*3
02-06-2011  12:50:02
15.58 g/m*3
05-06-2011  14:29:01
8.4 g/m*3
Windchill
(Aussen-T/F)
8.6 C
02-06-2011  06:02:20
33.8 C
30-05-2011  18:12:02
17.82 C

Die Daten stammen von einer Davis Vantage Pro 2 Wetter-Station und werden unter Linux mit der Software wview2wettercgi und aufbereitet. Alle Angaben erfolgen ohne Gewähr für ihre Vollständigkeit oder Richtigkeit.
Kontakt: Rainer Krienke krienke@uni-koblenz.de . Meine Webseiten an der Uni Koblenz oder privat.
Version: $Revision: 0.78 $